| time (UTC) | temp C | wind direction | speed KPH | gust KPH | rain 1hr cm | rain 24hr cm | rain mn cm | humidity % | barometer mb |
| 20260503051205 | 9 | 1 | 29.0 | 33.8 | 0.00 | 0.03 | 0.00 | 66 | 1010.0 |
| 20260503051105 | 9 | 2 | 29.0 | 33.8 | 0.00 | 0.03 | 0.00 | 66 | 1009.9 |
| 20260503051006 | 9 | 2 | 29.0 | 33.8 | 0.00 | 0.03 | 0.00 | 66 | 1009.9 |
| 20260503050905 | 9 | 3 | 29.0 | 33.8 | 0.00 | 0.03 | 0.00 | 66 | 1009.9 |
| 20260503050805 | 9 | 3 | 29.0 | 33.8 | 0.00 | 0.03 | 0.00 | 65 | 1009.9 |
| 20260503050205 | 9 | 8 | 30.6 | 37.0 | 0.00 | 0.03 | 0.00 | 67 | 1009.9 |
| 20260503050114 | 9 | 11 | 27.4 | 37.0 | 0.00 | 0.03 | 0.00 | 67 | 1010.2 |
| 20260503050105 | 9 | 8 | 30.6 | 37.0 | 0.00 | 0.03 | 0.00 | 67 | 1009.9 |
| 20260503050006 | 10 | 8 | 32.2 | 37.0 | 0.00 | 0.03 | 0.00 | 67 | 1009.8 |
| 20260503045905 | 9 | 8 | 32.2 | 38.6 | 0.00 | 0.03 | 0.00 | 67 | 1009.7 |
| 20260503045805 | 9 | 8 | 32.2 | 38.6 | 0.00 | 0.03 | 0.00 | 67 | 1009.7 |
| 20260503045706 | 9 | 7 | 32.2 | 38.6 | 0.00 | 0.03 | 0.00 | 68 | 1009.7 |
| 20260503045605 | 10 | 7 | 32.2 | 38.6 | 0.00 | 0.03 | 0.00 | 67 | 1009.7 |
| 20260503045505 | 9 | 7 | 32.2 | 38.6 | 0.00 | 0.03 | 0.00 | 67 | 1009.7 |
| 20260503045405 | 10 | 7 | 32.2 | 38.6 | 0.00 | 0.03 | 0.00 | 67 | 1009.7 |
| 20260503045305 | 10 | 6 | 30.6 | 38.6 | 0.00 | 0.03 | 0.00 | 67 | 1009.7 |
| 20260503045206 | 9 | 6 | 30.6 | 38.6 | 0.00 | 0.03 | 0.00 | 67 | 1009.7 |
| 20260503045105 | 10 | 6 | 30.6 | 38.6 | 0.00 | 0.03 | 0.00 | 66 | 1009.7 |
| 20260503045005 | 10 | 5 | 30.6 | 38.6 | 0.00 | 0.03 | 0.00 | 67 | 1009.7 |
| 20260503044905 | 10 | 5 | 30.6 | 38.6 | 0.00 | 0.03 | 0.00 | 68 | 1009.6 |
| 20260503044805 | 10 | 5 | 30.6 | 38.6 | 0.00 | 0.03 | 0.00 | 68 | 1009.7 |
| 20260503044705 | 10 | 5 | 30.6 | 35.4 | 0.00 | 0.03 | 0.00 | 68 | 1009.7 |
| 20260503044606 | 9 | 5 | 27.4 | 35.4 | 0.00 | 0.03 | 0.00 | 68 | 1009.9 |
| 20260503044505 | 10 | 5 | 30.6 | 35.4 | 0.00 | 0.03 | 0.00 | 68 | 1009.8 |
| 20260503044406 | 10 | 5 | 30.6 | 35.4 | 0.00 | 0.03 | 0.00 | 68 | 1009.7 |
| 20260503044305 | 10 | 4 | 32.2 | 35.4 | 0.00 | 0.03 | 0.00 | 68 | 1009.8 |
| 20260503044205 | 10 | 4 | 32.2 | 35.4 | 0.00 | 0.03 | 0.00 | 68 | 1009.7 |
| 20260503044105 | 10 | 4 | 32.2 | 37.0 | 0.00 | 0.03 | 0.00 | 68 | 1009.7 |
| 20260503044005 | 10 | 4 | 32.2 | 38.6 | 0.00 | 0.03 | 0.00 | 68 | 1009.7 |
| 20260503043905 | 10 | 4 | 32.2 | 38.6 | 0.00 | 0.03 | 0.00 | 68 | 1009.7 |
| 20260503043805 | 10 | 4 | 32.2 | 38.6 | 0.00 | 0.03 | 0.00 | 68 | 1009.7 |
| 20260503043705 | 10 | 4 | 32.2 | 38.6 | 0.00 | 0.03 | 0.00 | 68 | 1009.8 |
| 20260503043605 | 10 | 4 | 30.6 | 38.6 | 0.00 | 0.03 | 0.00 | 67 | 1009.8 |
| 20260503043505 | 10 | 4 | 30.6 | 38.6 | 0.00 | 0.03 | 0.00 | 67 | 1009.9 |
| 20260503043405 | 10 | 4 | 29.0 | 38.6 | 0.00 | 0.03 | 0.00 | 67 | 1009.9 |
| 20260503043305 | 10 | 4 | 27.4 | 38.6 | 0.00 | 0.03 | 0.00 | 67 | 1010.0 |
| 20260503043205 | 10 | 5 | 27.4 | 38.6 | 0.00 | 0.03 | 0.00 | 67 | 1009.9 |
| 20260503043112 | 9 | 358 | 32.2 | 38.6 | 0.00 | 0.03 | 0.00 | 68 | 1010.1 |
| 20260503043106 | 10 | 5 | 25.7 | 38.6 | 0.00 | 0.03 | 0.00 | 68 | 1010.0 |
| 20260503043006 | 10 | 6 | 25.7 | 35.4 | 0.00 | 0.03 | 0.00 | 68 | 1010.1 |
| 20260503042905 | 10 | 7 | 24.1 | 35.4 | 0.00 | 0.03 | 0.00 | 68 | 1010.1 |
| 20260503042806 | 10 | 8 | 22.5 | 33.8 | 0.00 | 0.03 | 0.00 | 69 | 1010.3 |
| 20260503042705 | 10 | 9 | 22.5 | 33.8 | 0.00 | 0.03 | 0.00 | 69 | 1010.3 |
| 20260503042605 | 10 | 10 | 22.5 | 27.4 | 0.00 | 0.03 | 0.00 | 70 | 1010.4 |
| 20260503042505 | 10 | 10 | 22.5 | 27.4 | 0.00 | 0.03 | 0.00 | 70 | 1010.4 |
| 20260503042405 | 10 | 10 | 22.5 | 27.4 | 0.00 | 0.03 | 0.00 | 70 | 1010.4 |
| 20260503042305 | 10 | 9 | 22.5 | 29.0 | 0.00 | 0.03 | 0.00 | 70 | 1010.3 |
| 20260503042205 | 10 | 9 | 24.1 | 29.0 | 0.00 | 0.03 | 0.00 | 70 | 1010.3 |
| 20260503042105 | 10 | 8 | 24.1 | 30.6 | 0.00 | 0.03 | 0.00 | 70 | 1010.2 |
| 20260503042005 | 10 | 7 | 25.7 | 32.2 | 0.00 | 0.03 | 0.00 | 69 | 1010.2 |
| 20260503041905 | 10 | 7 | 25.7 | 32.2 | 0.00 | 0.03 | 0.00 | 69 | 1010.3 |
| 20260503041805 | 10 | 6 | 27.4 | 32.2 | 0.00 | 0.03 | 0.00 | 69 | 1010.2 |
| 20260503041706 | 10 | 5 | 27.4 | 33.8 | 0.00 | 0.03 | 0.00 | 69 | 1010.2 |
| 20260503041605 | 10 | 4 | 27.4 | 33.8 | 0.00 | 0.03 | 0.00 | 69 | 1010.2 |
| 20260503041507 | 10 | 360 | 24.1 | 33.8 | 0.00 | 0.03 | 0.00 | 69 | 1010.4 |
| 20260503041005 | 10 | 5 | 30.6 | 35.4 | 0.00 | 0.03 | 0.00 | 68 | 1010.2 |
| 20260503040905 | 10 | 5 | 30.6 | 37.0 | 0.00 | 0.03 | 0.00 | 68 | 1010.2 |
| 20260503040805 | 10 | 5 | 30.6 | 37.0 | 0.00 | 0.03 | 0.00 | 68 | 1010.1 |
| 20260503040705 | 10 | 5 | 30.6 | 37.0 | 0.00 | 0.03 | 0.00 | 68 | 1010.1 |
| 20260503040605 | 10 | 5 | 30.6 | 37.0 | 0.00 | 0.03 | 0.00 | 68 | 1010.0 |
| 20260503040506 | 10 | 5 | 30.6 | 37.0 | 0.00 | 0.03 | 0.00 | 68 | 1010.0 |
| 20260503040405 | 10 | 5 | 30.6 | 37.0 | 0.00 | 0.03 | 0.00 | 68 | 1010.0 |
| 20260503040305 | 10 | 5 | 30.6 | 37.0 | 0.00 | 0.03 | 0.00 | 69 | 1010.0 |
| 20260503040205 | 10 | 5 | 30.6 | 37.0 | 0.00 | 0.03 | 0.00 | 69 | 1010.0 |
| 20260503040109 | 10 | 360 | 30.6 | 37.0 | 0.00 | 0.03 | 0.03 | 69 | 1010.3 |
| 20260503040105 | 10 | 6 | 30.6 | 37.0 | 0.00 | 0.03 | 0.00 | 69 | 1010.0 |
| 20260503040006 | 10 | 6 | 30.6 | 37.0 | 0.00 | 0.03 | 0.00 | 69 | 1010.0 |
| 20260503035905 | 10 | 6 | 29.0 | 37.0 | 0.00 | 0.03 | 0.03 | 69 | 1010.0 |
| 20260503035805 | 10 | 6 | 29.0 | 37.0 | 0.00 | 0.03 | 0.03 | 69 | 1010.0 |
| 20260503035705 | 10 | 7 | 27.4 | 33.8 | 0.00 | 0.03 | 0.03 | 69 | 1010.0 |
| 20260503035605 | 10 | 7 | 27.4 | 32.2 | 0.00 | 0.03 | 0.03 | 69 | 1010.1 |
| 20260503035505 | 10 | 7 | 27.4 | 32.2 | 0.00 | 0.03 | 0.03 | 70 | 1010.1 |
| 20260503035405 | 10 | 8 | 25.7 | 32.2 | 0.00 | 0.03 | 0.03 | 70 | 1010.1 |
| 20260503035305 | 10 | 9 | 25.7 | 32.2 | 0.00 | 0.03 | 0.03 | 70 | 1010.0 |
| 20260503035205 | 10 | 10 | 25.7 | 32.2 | 0.00 | 0.03 | 0.03 | 70 | 1010.0 |
| 20260503035105 | 10 | 10 | 25.7 | 32.2 | 0.00 | 0.03 | 0.03 | 70 | 1009.9 |
| 20260503035005 | 10 | 10 | 24.1 | 30.6 | 0.00 | 0.03 | 0.03 | 71 | 1010.0 |
| 20260503034905 | 10 | 11 | 24.1 | 30.6 | 0.00 | 0.03 | 0.03 | 71 | 1009.9 |
| 20260503034805 | 10 | 11 | 24.1 | 30.6 | 0.00 | 0.03 | 0.03 | 71 | 1010.0 |
| 20260503034705 | 10 | 11 | 24.1 | 29.0 | 0.00 | 0.03 | 0.03 | 72 | 1010.0 |
| 20260503034621 | 10 | 7 | 24.1 | 29.0 | 0.00 | 0.03 | 0.03 | 71 | 1010.2 |
| 20260503034605 | 10 | 11 | 24.1 | 29.0 | 0.00 | 0.03 | 0.03 | 72 | 1010.0 |
| 20260503034005 | 10 | 7 | 24.1 | 30.6 | 0.00 | 0.03 | 0.03 | 72 | 1009.9 |
| 20260503033905 | 10 | 6 | 25.7 | 30.6 | 0.00 | 0.03 | 0.03 | 72 | 1009.9 |
| 20260503033805 | 10 | 5 | 25.7 | 30.6 | 0.00 | 0.03 | 0.03 | 72 | 1009.9 |
| 20260503033705 | 10 | 4 | 25.7 | 32.2 | 0.00 | 0.03 | 0.03 | 72 | 1009.9 |
| 20260503033605 | 10 | 3 | 25.7 | 32.2 | 0.00 | 0.03 | 0.03 | 72 | 1009.9 |
| 20260503033505 | 10 | 3 | 27.4 | 32.2 | 0.00 | 0.03 | 0.03 | 72 | 1009.9 |
| 20260503033405 | 10 | 2 | 27.4 | 32.2 | 0.00 | 0.03 | 0.03 | 72 | 1009.9 |
| 20260503033305 | 10 | 1 | 27.4 | 32.2 | 0.00 | 0.03 | 0.03 | 72 | 1010.0 |
| 20260503033205 | 10 | 1 | 27.4 | 32.2 | 0.00 | 0.03 | 0.03 | 72 | 1010.0 |
| 20260503033107 | -17 | 360 | 25.7 | 32.2 | 0.00 | 0.03 | 0.03 | 1010.2 | |
| 20260503033105 | 10 | 359 | 27.4 | 32.2 | 0.00 | 0.03 | 0.03 | 72 | 1009.9 |
| 20260503033005 | 10 | 359 | 27.4 | 32.2 | 0.00 | 0.03 | 0.03 | 72 | 1009.9 |
| 20260503032905 | 10 | 359 | 29.0 | 32.2 | 0.00 | 0.03 | 0.03 | 72 | 1009.9 |
| 20260503032805 | 10 | 359 | 29.0 | 32.2 | 0.00 | 0.03 | 0.03 | 72 | 1009.8 |
| 20260503032705 | 10 | 359 | 29.0 | 32.2 | 0.00 | 0.03 | 0.03 | 72 | 1009.9 |
| 20260503032605 | 10 | 359 | 29.0 | 33.8 | 0.00 | 0.03 | 0.03 | 72 | 1009.9 |
| 20260503032506 | 10 | 358 | 29.0 | 33.8 | 0.00 | 0.03 | 0.03 | 72 | 1009.9 |
| 20260503032405 | 10 | 358 | 29.0 | 33.8 | 0.00 | 0.03 | 0.03 | 72 | 1009.9 |
| 20260503032305 | 10 | 357 | 29.0 | 33.8 | 0.00 | 0.03 | 0.03 | 73 | 1009.9 |
| 20260503032205 | 10 | 357 | 29.0 | 33.8 | 0.00 | 0.03 | 0.03 | 73 | 1010.0 |
| 20260503032105 | 10 | 357 | 29.0 | 33.8 | 0.00 | 0.03 | 0.03 | 73 | 1010.0 |
| 20260503032005 | 10 | 357 | 27.4 | 33.8 | 0.00 | 0.03 | 0.03 | 74 | 1009.9 |
| 20260503031905 | 10 | 357 | 27.4 | 33.8 | 0.00 | 0.03 | 0.03 | 74 | 1010.0 |
| 20260503031805 | 10 | 356 | 27.4 | 33.8 | 0.00 | 0.03 | 0.03 | 76 | 1009.9 |
| 20260503031706 | 10 | 356 | 27.4 | 33.8 | 0.00 | 0.03 | 0.03 | 76 | 1009.8 |
| 20260503031620 | 9 | 2 | 29.0 | 32.2 | 0.00 | 0.03 | 0.03 | 77 | 1010.1 |
| 20260503031605 | 10 | 355 | 25.7 | 32.2 | 0.00 | 0.03 | 0.03 | 77 | 1009.8 |
| 20260503031505 | 10 | 356 | 25.7 | 32.2 | 0.00 | 0.03 | 0.03 | 77 | 1009.8 |
| 20260503031406 | 10 | 357 | 24.1 | 30.6 | 0.00 | 0.03 | 0.03 | 77 | 1009.7 |
| 20260503031305 | 10 | 358 | 24.1 | 30.6 | 0.00 | 0.03 | 0.03 | 78 | 1009.7 |
| 20260503031205 | 10 | 358 | 24.1 | 30.6 | 0.00 | 0.03 | 0.03 | 78 | 1009.7 |
| 20260503031105 | 10 | 359 | 22.5 | 29.0 | 0.00 | 0.03 | 0.03 | 79 | 1009.7 |
| 20260503031005 | 10 | 1 | 20.9 | 29.0 | 0.00 | 0.03 | 0.03 | 79 | 1009.8 |
| 20260503030906 | 10 | 2 | 20.9 | 29.0 | 0.00 | 0.03 | 0.03 | 80 | 1009.8 |
| 20260503030806 | 10 | 2 | 19.3 | 29.0 | 0.00 | 0.03 | 0.03 | 80 | 1009.9 |
| 20260503030705 | 10 | 2 | 19.3 | 25.7 | 0.00 | 0.03 | 0.03 | 81 | 1010.0 |
| 20260503030605 | 10 | 1 | 17.7 | 25.7 | 0.00 | 0.03 | 0.03 | 81 | 1010.1 |
| 20260503030505 | 10 | 1 | 17.7 | 22.5 | 0.00 | 0.03 | 0.03 | 81 | 1010.2 |
| 20260503030405 | 10 | 2 | 16.1 | 22.5 | 0.00 | 0.03 | 0.03 | 81 | 1010.1 |
| 20260503030305 | 10 | 2 | 16.1 | 22.5 | 0.00 | 0.03 | 0.03 | 81 | 1010.1 |
| 20260503030205 | 10 | 2 | 14.5 | 22.5 | 0.00 | 0.03 | 0.03 | 81 | 1010.1 |
| 20260503030105 | 10 | 5 | 14.5 | 22.5 | 0.00 | 0.03 | 0.03 | 81 | 1010.3 |
| 20260503030005 | 10 | 1 | 14.5 | 20.9 | 0.00 | 0.03 | 0.03 | 81 | 1010.2 |
| 20260503025905 | 10 | 1 | 14.5 | 20.9 | 0.00 | 0.03 | 0.03 | 81 | 1010.3 |
| 20260503025805 | 10 | 1 | 12.9 | 20.9 | 0.00 | 0.03 | 0.03 | 81 | 1010.3 |
| 20260503025705 | 10 | 2 | 12.9 | 20.9 | 0.00 | 0.03 | 0.03 | 81 | 1010.3 |
| 20260503025605 | 10 | 3 | 12.9 | 17.7 | 0.00 | 0.03 | 0.03 | 81 | 1010.3 |
| 20260503025505 | 10 | 3 | 11.3 | 17.7 | 0.00 | 0.03 | 0.03 | 81 | 1010.3 |
| 20260503025405 | 10 | 359 | 11.3 | 16.1 | 0.00 | 0.03 | 0.03 | 81 | 1010.2 |
| 20260503025305 | 10 | 357 | 11.3 | 16.1 | 0.00 | 0.03 | 0.03 | 81 | 1010.2 |
| 20260503025205 | 10 | 355 | 11.3 | 16.1 | 0.00 | 0.03 | 0.03 | 81 | 1010.2 |
| 20260503025105 | 10 | 352 | 11.3 | 16.1 | 0.00 | 0.03 | 0.03 | 81 | 1010.2 |
| 20260503025005 | 10 | 349 | 12.9 | 16.1 | 0.00 | 0.03 | 0.03 | 81 | 1010.1 |
| 20260503024906 | 10 | 345 | 12.9 | 16.1 | 0.00 | 0.03 | 0.03 | 81 | 1010.2 |
| 20260503024805 | 10 | 342 | 12.9 | 16.1 | 0.00 | 0.03 | 0.03 | 81 | 1010.3 |
| 20260503024615 | 10 | 1 | 11.3 | 19.3 | 0.00 | 0.03 | 0.03 | 80 | 1010.6 |
| 20260503024105 | 10 | 326 | 12.9 | 22.5 | 0.00 | 0.03 | 0.03 | 80 | 1010.3 |
| 20260503024005 | 10 | 326 | 11.3 | 22.5 | 0.00 | 0.03 | 0.03 | 80 | 1010.3 |
| 20260503023906 | 10 | 325 | 11.3 | 22.5 | 0.00 | 0.03 | 0.03 | 80 | 1010.2 |
| 20260503023805 | 10 | 322 | 9.7 | 22.5 | 0.00 | 0.03 | 0.03 | 79 | 1010.2 |
| 20260503023705 | 10 | 319 | 8.0 | 22.5 | 0.00 | 0.03 | 0.03 | 79 | 1010.2 |
| 20260503023606 | 10 | 315 | 8.0 | 22.5 | 0.00 | 0.03 | 0.03 | 79 | 1010.2 |
| 20260503023104 | 10 | 330 | 4.8 | 9.7 | 0.00 | 0.03 | 0.03 | 79 | 1010.4 |
| 20260503023005 | 10 | 231 | 3.2 | 6.4 | 0.00 | 0.03 | 0.03 | 79 | 1010.2 |
| 20260503022905 | 10 | 221 | 3.2 | 6.4 | 0.00 | 0.03 | 0.03 | 79 | 1010.1 |
| 20260503022805 | 10 | 221 | 1.6 | 6.4 | 0.00 | 0.03 | 0.03 | 79 | 1010.1 |
| 20260503022704 | 10 | 221 | 1.6 | 6.4 | 0.00 | 0.03 | 0.03 | 79 | 1010.1 |
| 20260503022605 | 10 | 221 | 1.6 | 6.4 | 0.00 | 0.03 | 0.03 | 79 | 1010.1 |
| 20260503022505 | 10 | 221 | 1.6 | 6.4 | 0.00 | 0.03 | 0.03 | 79 | 1010.2 |
| 20260503022405 | 10 | 221 | 1.6 | 6.4 | 0.00 | 0.03 | 0.03 | 79 | 1010.1 |
| 20260503022305 | 11 | 221 | 1.6 | 3.2 | 0.00 | 0.03 | 0.03 | 79 | 1010.1 |
| 20260503022205 | 11 | 221 | 1.6 | 3.2 | 0.00 | 0.03 | 0.03 | 79 | 1010.1 |
| 20260503022105 | 11 | 221 | 1.6 | 3.2 | 0.00 | 0.03 | 0.03 | 79 | 1010.1 |
| 20260503022006 | 11 | 221 | 1.6 | 3.2 | 0.00 | 0.03 | 0.03 | 79 | 1010.0 |
| 20260503021905 | 11 | 221 | 1.6 | 3.2 | 0.00 | 0.03 | 0.03 | 79 | 1010.0 |
| 20260503021805 | 11 | 221 | 1.6 | 3.2 | 0.00 | 0.03 | 0.03 | 79 | 1010.1 |
| 20260503021705 | 11 | 221 | 1.6 | 3.2 | 0.00 | 0.03 | 0.03 | 79 | 1010.1 |
| 20260503021617 | 10 | 221 | 0.0 | 3.2 | 0.00 | 0.03 | 0.03 | 79 | 1010.2 |
| 20260503021605 | 11 | 221 | 1.6 | 3.2 | 0.00 | 0.03 | 0.03 | 79 | 1010.0 |
| 20260503021505 | 11 | 222 | 1.6 | 6.4 | 0.00 | 0.03 | 0.03 | 79 | 1010.1 |
| 20260503021405 | 11 | 222 | 1.6 | 6.4 | 0.00 | 0.03 | 0.03 | 79 | 1010.0 |
| 20260503021305 | 11 | 222 | 1.6 | 6.4 | 0.00 | 0.03 | 0.03 | 78 | 1010.1 |
| 20260503021205 | 11 | 222 | 3.2 | 6.4 | 0.00 | 0.03 | 0.03 | 78 | 1010.1 |
| 20260503021105 | 11 | 222 | 3.2 | 6.4 | 0.00 | 0.03 | 0.03 | 78 | 1010.1 |
| 20260503020506 | 11 | 222 | 3.2 | 8.0 | 0.00 | 0.03 | 0.03 | 78 | 1010.1 |
| 20260503020405 | 11 | 222 | 3.2 | 8.0 | 0.00 | 0.03 | 0.03 | 78 | 1010.1 |
| 20260503020305 | 11 | 221 | 3.2 | 8.0 | 0.00 | 0.03 | 0.03 | 78 | 1010.1 |
| 20260503020205 | 11 | 221 | 3.2 | 8.0 | 0.00 | 0.03 | 0.03 | 78 | 1010.1 |
| 20260503020105 | 11 | 221 | 4.8 | 8.0 | 0.00 | 0.03 | 0.03 | 78 | 1010.0 |
| 20260503020009 | 10 | 221 | 3.2 | 8.0 | 0.00 | 0.03 | 0.03 | 78 | 1010.3 |
| 20260503015505 | 11 | 204 | 4.8 | 9.7 | 0.00 | 0.03 | 0.03 | 78 | 1010.0 |
| 20260503015404 | 11 | 199 | 4.8 | 9.7 | 0.00 | 0.03 | 0.03 | 78 | 1010.0 |
| 20260503015305 | 11 | 194 | 4.8 | 9.7 | 0.00 | 0.03 | 0.03 | 78 | 1010.0 |
| 20260503015204 | 11 | 190 | 4.8 | 9.7 | 0.00 | 0.03 | 0.03 | 78 | 1010.0 |
| 20260503015105 | 11 | 187 | 4.8 | 9.7 | 0.00 | 0.03 | 0.03 | 78 | 1010.1 |
| 20260503015005 | 11 | 184 | 4.8 | 11.3 | 0.00 | 0.03 | 0.03 | 78 | 1010.1 |
| 20260503014905 | 11 | 184 | 4.8 | 11.3 | 0.00 | 0.03 | 0.03 | 78 | 1010.1 |
| 20260503014805 | 11 | 185 | 4.8 | 11.3 | 0.00 | 0.03 | 0.03 | 78 | 1010.1 |
| 20260503014705 | 11 | 185 | 4.8 | 11.3 | 0.00 | 0.03 | 0.03 | 78 | 1010.2 |
| 20260503014614 | 11 | 203 | 4.8 | 11.3 | 0.00 | 0.03 | 0.03 | 78 | 1010.4 |
| 20260503014605 | 11 | 183 | 4.8 | 11.3 | 0.00 | 0.03 | 0.03 | 78 | 1010.1 |
| 20260503013905 | 11 | 192 | 6.4 | 11.3 | 0.00 | 0.03 | 0.03 | 78 | 1010.2 |
| 20260503013805 | 11 | 191 | 6.4 | 11.3 | 0.00 | 0.03 | 0.03 | 77 | 1010.2 |
| 20260503013705 | 11 | 190 | 6.4 | 11.3 | 0.00 | 0.03 | 0.03 | 77 | 1010.1 |
| 20260503013605 | 11 | 189 | 6.4 | 11.3 | 0.00 | 0.03 | 0.03 | 77 | 1010.1 |
| 20260503013505 | 11 | 186 | 6.4 | 11.3 | 0.00 | 0.03 | 0.03 | 77 | 1010.1 |
| 20260503013405 | 11 | 184 | 6.4 | 11.3 | 0.00 | 0.03 | 0.03 | 77 | 1010.1 |
| 20260503013305 | 11 | 183 | 6.4 | 11.3 | 0.00 | 0.03 | 0.03 | 77 | 1010.1 |
| 20260503013205 | 11 | 179 | 6.4 | 11.3 | 0.00 | 0.03 | 0.03 | 77 | 1010.1 |
| 20260503013105 | 11 | 177 | 6.4 | 11.3 | 0.00 | 0.03 | 0.03 | 77 | 1010.2 |
| 20260503013012 | 11 | 194 | 4.8 | 11.3 | 0.00 | 0.03 | 0.03 | 77 | 1010.4 |
| 20260503013005 | 11 | 176 | 4.8 | 11.3 | 0.00 | 0.03 | 0.03 | 77 | 1010.1 |
| 20260503012906 | 11 | 174 | 4.8 | 11.3 | 0.00 | 0.03 | 0.03 | 77 | 1010.1 |
| 20260503012805 | 11 | 173 | 4.8 | 11.3 | 0.00 | 0.03 | 0.03 | 77 | 1010.1 |
| 20260503012705 | 11 | 172 | 6.4 | 11.3 | 0.00 | 0.03 | 0.03 | 77 | 1010.1 |
| 20260503012605 | 11 | 172 | 4.8 | 11.3 | 0.00 | 0.03 | 0.03 | 77 | 1010.0 |
| 20260503012505 | 11 | 173 | 4.8 | 11.3 | 0.00 | 0.03 | 0.03 | 77 | 1010.1 |
| 20260503012405 | 11 | 173 | 4.8 | 11.3 | 0.00 | 0.03 | 0.03 | 77 | 1010.1 |
| 20260503012306 | 11 | 173 | 6.4 | 11.3 | 0.00 | 0.03 | 0.03 | 77 | 1010.1 |
| 20260503012205 | 11 | 174 | 6.4 | 11.3 | 0.00 | 0.03 | 0.03 | 77 | 1010.1 |
| 20260503012105 | 11 | 175 | 6.4 | 11.3 | 0.00 | 0.03 | 0.03 | 76 | 1010.2 |
| 20260503012005 | 11 | 174 | 6.4 | 11.3 | 0.00 | 0.03 | 0.03 | 76 | 1010.2 |
| 20260503011905 | 11 | 176 | 6.4 | 11.3 | 0.00 | 0.03 | 0.03 | 76 | 1010.2 |
| 20260503011805 | 11 | 177 | 6.4 | 11.3 | 0.00 | 0.03 | 0.03 | 76 | 1010.2 |
| 20260503011705 | 11 | 178 | 6.4 | 11.3 | 0.00 | 0.03 | 0.03 | 76 | 1010.2 |
| 20260503011613 | 11 | 183 | 4.8 | 11.3 | 0.00 | 0.03 | 0.03 | 76 | 1010.4 |
| 20260503011605 | 11 | 179 | 6.4 | 12.9 | 0.00 | 0.03 | 0.03 | 76 | 1010.2 |
| 20260503011505 | 11 | 181 | 6.4 | 12.9 | 0.00 | 0.03 | 0.03 | 76 | 1010.2 |
| 20260503011405 | 11 | 181 | 6.4 | 12.9 | 0.00 | 0.03 | 0.03 | 76 | 1010.1 |
| 20260503011305 | 11 | 182 | 6.4 | 12.9 | 0.00 | 0.03 | 0.03 | 76 | 1010.1 |
| 20260503011205 | 11 | 182 | 6.4 | 12.9 | 0.00 | 0.03 | 0.03 | 76 | 1010.0 |
| 20260503011105 | 11 | 182 | 6.4 | 12.9 | 0.00 | 0.03 | 0.03 | 76 | 1010.0 |
| 20260503011005 | 11 | 184 | 6.4 | 12.9 | 0.00 | 0.03 | 0.03 | 76 | 1010.0 |
| 20260503010905 | 11 | 181 | 6.4 | 12.9 | 0.00 | 0.03 | 0.03 | 76 | 1010.0 |
| 20260503010205 | 11 | 173 | 6.4 | 12.9 | 0.00 | 0.03 | 0.03 | 76 | 1010.0 |
| 20260503010105 | 11 | 171 | 6.4 | 12.9 | 0.00 | 0.03 | 0.03 | 75 | 1009.9 |
| 20260503010007 | 11 | 158 | 6.4 | 12.9 | 0.00 | 0.03 | 0.03 | 75 | 1010.2 |
| 20260503010005 | 11 | 170 | 6.4 | 12.9 | 0.00 | 0.03 | 0.03 | 75 | 1010.0 |
| 20260503005905 | 11 | 171 | 6.4 | 11.3 | 0.00 | 0.03 | 0.03 | 75 | 1010.0 |
| 20260503005806 | 11 | 171 | 6.4 | 9.7 | 0.00 | 0.03 | 0.03 | 75 | 1010.0 |
| 20260503005705 | 11 | 169 | 4.8 | 9.7 | 0.00 | 0.03 | 0.03 | 75 | 1010.0 |
| 20260503005605 | 11 | 168 | 6.4 | 9.7 | 0.00 | 0.03 | 0.03 | 75 | 1010.0 |
| 20260503005505 | 11 | 168 | 6.4 | 9.7 | 0.00 | 0.03 | 0.03 | 74 | 1009.9 |
| 20260503005405 | 11 | 167 | 6.4 | 9.7 | 0.00 | 0.03 | 0.03 | 74 | 1009.9 |
| 20260503005305 | 11 | 167 | 6.4 | 9.7 | 0.00 | 0.03 | 0.03 | 74 | 1009.9 |
| 20260503005205 | 11 | 166 | 4.8 | 9.7 | 0.00 | 0.03 | 0.03 | 74 | 1009.9 |
| 20260503005105 | 11 | 167 | 4.8 | 9.7 | 0.00 | 0.03 | 0.03 | 74 | 1009.9 |
| 20260503005005 | 11 | 166 | 4.8 | 9.7 | 0.00 | 0.03 | 0.03 | 74 | 1009.8 |
| 20260503004905 | 11 | 166 | 4.8 | 9.7 | 0.00 | 0.03 | 0.03 | 74 | 1009.9 |
| 20260503004805 | 11 | 165 | 4.8 | 9.7 | 0.00 | 0.03 | 0.03 | 74 | 1009.9 |
| 20260503004610 | 11 | 169 | 4.8 | 9.7 | 0.00 | 0.03 | 0.03 | 74 | 1010.1 |
| 20260503004205 | 11 | 165 | 4.8 | 9.7 | 0.00 | 0.03 | 0.03 | 74 | 1009.9 |
| 20260503004105 | 11 | 166 | 4.8 | 9.7 | 0.00 | 0.03 | 0.03 | 73 | 1009.9 |
| 20260503004005 | 11 | 167 | 4.8 | 9.7 | 0.00 | 0.03 | 0.03 | 73 | 1009.8 |
| 20260503003906 | 11 | 168 | 4.8 | 9.7 | 0.00 | 0.03 | 0.03 | 73 | 1009.8 |
| 20260503003805 | 11 | 169 | 4.8 | 9.7 | 0.00 | 0.03 | 0.03 | 73 | 1009.8 |
| 20260503003705 | 11 | 170 | 3.2 | 9.7 | 0.00 | 0.03 | 0.03 | 73 | 1009.8 |
| 20260503003605 | 11 | 170 | 3.2 | 9.7 | 0.00 | 0.03 | 0.03 | 73 | 1009.8 |
| 20260503003505 | 11 | 170 | 4.8 | 9.7 | 0.00 | 0.03 | 0.03 | 73 | 1009.8 |
| 20260503003405 | 11 | 170 | 3.2 | 9.7 | 0.00 | 0.03 | 0.03 | 73 | 1009.8 |
| 20260503003305 | 11 | 169 | 3.2 | 6.4 | 0.00 | 0.03 | 0.03 | 73 | 1009.8 |
| 20260503003118 | 11 | 173 | 3.2 | 6.4 | 0.00 | 0.03 | 0.03 | 73 | 1010.0 |
| 20260503002705 | 12 | 164 | 3.2 | 6.4 | 0.00 | 0.03 | 0.03 | 73 | 1009.8 |
| 20260503002605 | 12 | 164 | 3.2 | 6.4 | 0.00 | 0.03 | 0.03 | 73 | 1009.7 |
| 20260503002505 | 12 | 163 | 3.2 | 6.4 | 0.00 | 0.03 | 0.03 | 73 | 1009.7 |
| 20260503002405 | 12 | 163 | 3.2 | 6.4 | 0.00 | 0.03 | 0.03 | 73 | 1009.7 |
| 20260503002305 | 12 | 162 | 3.2 | 6.4 | 0.00 | 0.03 | 0.03 | 73 | 1009.7 |
| 20260503002205 | 12 | 162 | 3.2 | 6.4 | 0.00 | 0.03 | 0.03 | 73 | 1009.6 |
| 20260503002105 | 12 | 162 | 3.2 | 6.4 | 0.00 | 0.03 | 0.03 | 73 | 1009.7 |
| 20260503002005 | 12 | 161 | 3.2 | 4.8 | 0.00 | 0.03 | 0.03 | 72 | 1009.7 |
| 20260503001904 | 12 | 161 | 3.2 | 4.8 | 0.00 | 0.03 | 0.03 | 72 | 1009.6 |
| 20260503001805 | 12 | 162 | 3.2 | 4.8 | 0.00 | 0.03 | 0.03 | 72 | 1009.7 |
| 20260503001705 | 12 | 161 | 3.2 | 4.8 | 0.00 | 0.03 | 0.03 | 72 | 1009.7 |
| 20260503001608 | 11 | 161 | 1.6 | 4.8 | 0.00 | 0.03 | 0.03 | 72 | 1009.9 |
| 20260503001605 | 12 | 160 | 3.2 | 4.8 | 0.00 | 0.03 | 0.03 | 72 | 1009.7 |
| 20260503001505 | 12 | 160 | 3.2 | 6.4 | 0.00 | 0.03 | 0.03 | 72 | 1009.7 |
| 20260503001405 | 12 | 160 | 3.2 | 6.4 | 0.00 | 0.03 | 0.03 | 72 | 1009.7 |
| 20260503001305 | 12 | 160 | 3.2 | 6.4 | 0.00 | 0.03 | 0.03 | 72 | 1009.6 |
| 20260503001205 | 12 | 160 | 4.8 | 6.4 | 0.00 | 0.03 | 0.03 | 72 | 1009.6 |
| 20260503001105 | 12 | 159 | 4.8 | 6.4 | 0.00 | 0.03 | 0.03 | 72 | 1009.6 |
| 20260503001005 | 12 | 158 | 4.8 | 6.4 | 0.00 | 0.03 | 0.03 | 72 | 1009.6 |
| 20260503000905 | 12 | 157 | 4.8 | 6.4 | 0.00 | 0.03 | 0.03 | 72 | 1009.6 |
| 20260503000805 | 12 | 155 | 4.8 | 6.4 | 0.00 | 0.03 | 0.03 | 72 | 1009.6 |
| 20260503000705 | 12 | 154 | 4.8 | 6.4 | 0.00 | 0.03 | 0.03 | 72 | 1009.5 |
| 20260503000604 | 12 | 153 | 3.2 | 6.4 | 0.00 | 0.03 | 0.03 | 72 | 1009.5 |
| 20260503000505 | 12 | 152 | 3.2 | 6.4 | 0.00 | 0.03 | 0.03 | 72 | 1009.6 |
| 20260503000407 | 12 | 151 | 3.2 | 6.4 | 0.00 | 0.03 | 0.03 | 72 | 1009.6 |
| 20260503000305 | 12 | 149 | 3.2 | 4.8 | 0.00 | 0.03 | 0.03 | 72 | 1009.6 |
| 20260503000205 | 12 | 148 | 3.2 | 4.8 | 0.00 | 0.03 | 0.03 | 72 | 1009.6 |
| 20260503000116 | 12 | 158 | 3.2 | 4.8 | 0.00 | 0.03 | 0.03 | 72 | 1009.8 |
| 20260503000105 | 12 | 147 | 3.2 | 4.8 | 0.00 | 0.03 | 0.03 | 72 | 1009.6 |
| 20260503000005 | 12 | 146 | 3.2 | 4.8 | 0.00 | 0.03 | 0.03 | 72 | 1009.5 |
| 20260502235905 | 12 | 146 | 3.2 | 4.8 | 0.00 | 0.03 | 0.03 | 72 | 1009.5 |
| 20260502235805 | 12 | 146 | 3.2 | 4.8 | 0.00 | 0.03 | 0.03 | 72 | 1009.5 |
| 20260502234606 | 12 | 146 | 3.2 | 6.4 | 0.00 | 0.03 | 0.03 | 71 | 1009.7 |
| 20260502234205 | 12 | 148 | 3.2 | 6.4 | 0.00 | 0.03 | 0.03 | 71 | 1009.6 |
| 20260502234105 | 12 | 147 | 3.2 | 6.4 | 0.00 | 0.03 | 0.03 | 71 | 1009.6 |
| 20260502234005 | 12 | 148 | 3.2 | 6.4 | 0.00 | 0.03 | 0.03 | 71 | 1009.6 |
| 20260502233905 | 12 | 148 | 3.2 | 6.4 | 0.00 | 0.03 | 0.03 | 71 | 1009.5 |
| 20260502233805 | 12 | 147 | 3.2 | 6.4 | 0.00 | 0.03 | 0.03 | 71 | 1009.6 |
| 20260502233705 | 12 | 148 | 3.2 | 6.4 | 0.00 | 0.03 | 0.03 | 71 | 1009.6 |
| 20260502233604 | 12 | 148 | 3.2 | 6.4 | 0.00 | 0.03 | 0.03 | 71 | 1009.5 |
| 20260502233505 | 12 | 148 | 3.2 | 6.4 | 0.00 | 0.03 | 0.03 | 71 | 1009.6 |
| 20260502233404 | 12 | 148 | 3.2 | 6.4 | 0.00 | 0.03 | 0.03 | 71 | 1009.6 |
| 20260502233305 | 12 | 148 | 3.2 | 6.4 | 0.00 | 0.03 | 0.03 | 71 | 1009.6 |
| 20260502233205 | 12 | 148 | 3.2 | 6.4 | 0.00 | 0.03 | 0.03 | 71 | 1009.5 |
| 20260502233114 | 12 | 148 | 3.2 | 6.4 | 0.00 | 0.03 | 0.03 | 71 | 1009.8 |
| 20260502233105 | 12 | 148 | 3.2 | 6.4 | 0.00 | 0.03 | 0.03 | 71 | 1009.5 |
| 20260502233005 | 12 | 148 | 3.2 | 6.4 | 0.00 | 0.03 | 0.03 | 71 | 1009.5 |
| 20260502232905 | 12 | 148 | 3.2 | 6.4 | 0.00 | 0.03 | 0.03 | 71 | 1009.5 |
| 20260502232805 | 12 | 149 | 3.2 | 6.4 | 0.00 | 0.03 | 0.03 | 71 | 1009.5 |
| 20260502232705 | 12 | 151 | 3.2 | 6.4 | 0.00 | 0.03 | 0.03 | 71 | 1009.5 |
| 20260502232605 | 12 | 154 | 3.2 | 6.4 | 0.00 | 0.03 | 0.03 | 71 | 1009.5 |
| 20260502232505 | 12 | 156 | 3.2 | 6.4 | 0.00 | 0.03 | 0.03 | 71 | 1009.5 |
| 20260502232405 | 12 | 159 | 3.2 | 6.4 | 0.00 | 0.03 | 0.03 | 71 | 1009.5 |
| 20260502232305 | 12 | 161 | 3.2 | 6.4 | 0.00 | 0.03 | 0.03 | 71 | 1009.5 |
| 20260502232205 | 12 | 164 | 3.2 | 6.4 | 0.00 | 0.03 | 0.03 | 71 | 1009.5 |
| 20260502232105 | 12 | 165 | 3.2 | 6.4 | 0.00 | 0.03 | 0.03 | 71 | 1009.6 |
| 20260502232005 | 12 | 165 | 3.2 | 6.4 | 0.00 | 0.03 | 0.03 | 71 | 1009.5 |
| 20260502231904 | 12 | 163 | 3.2 | 6.4 | 0.00 | 0.03 | 0.03 | 71 | 1009.5 |
| 20260502231805 | 12 | 160 | 3.2 | 6.4 | 0.00 | 0.03 | 0.03 | 71 | 1009.5 |
| 20260502231705 | 12 | 156 | 3.2 | 6.4 | 0.00 | 0.03 | 0.03 | 71 | 1009.5 |
| 20260502231607 | 12 | 158 | 3.2 | 6.4 | 0.00 | 0.03 | 0.03 | 71 | 1009.7 |
| 20260502231605 | 12 | 152 | 3.2 | 6.4 | 0.00 | 0.03 | 0.03 | 71 | 1009.5 |
| 20260502231505 | 12 | 149 | 3.2 | 6.4 | 0.00 | 0.03 | 0.03 | 71 | 1009.5 |
| 20260502231404 | 12 | 146 | 3.2 | 6.4 | 0.00 | 0.03 | 0.03 | 71 | 1009.5 |
| 20260502231305 | 12 | 143 | 3.2 | 6.4 | 0.00 | 0.03 | 0.03 | 71 | 1009.5 |
| 20260502231205 | 12 | 137 | 3.2 | 6.4 | 0.00 | 0.03 | 0.03 | 71 | 1009.5 |
| 20260502231105 | 12 | 134 | 3.2 | 6.4 | 0.00 | 0.03 | 0.03 | 71 | 1009.6 |
| 20260502231005 | 12 | 129 | 3.2 | 6.4 | 0.00 | 0.03 | 0.03 | 71 | 1009.5 |
| 20260502230905 | 12 | 126 | 3.2 | 6.4 | 0.00 | 0.03 | 0.03 | 71 | 1009.5 |
| 20260502230805 | 12 | 126 | 1.6 | 6.4 | 0.00 | 0.03 | 0.03 | 71 | 1009.5 |
| 20260502230605 | 12 | 127 | 1.6 | 6.4 | 0.00 | 0.03 | 0.03 | 71 | 1009.5 |
| 20260502230505 | 12 | 127 | 3.2 | 6.4 | 0.00 | 0.03 | 0.03 | 71 | 1009.5 |
| 20260502230405 | 12 | 127 | 3.2 | 6.4 | 0.00 | 0.03 | 0.03 | 71 | 1009.5 |
| 20260502230304 | 12 | 127 | 1.6 | 6.4 | 0.00 | 0.03 | 0.03 | 71 | 1009.5 |
| 20260502230205 | 12 | 127 | 1.6 | 6.4 | 0.00 | 0.03 | 0.03 | 71 | 1009.5 |
| 20260502230115 | 12 | 127 | 1.6 | 6.4 | 0.03 | 0.03 | 0.03 | 71 | 1009.8 |
| 20260502230105 | 12 | 127 | 1.6 | 6.4 | 0.00 | 0.03 | 0.03 | 71 | 1009.5 |
| 20260502230005 | 12 | 127 | 3.2 | 4.8 | 0.03 | 0.03 | 0.03 | 71 | 1009.5 |
| 20260502225905 | 12 | 126 | 3.2 | 6.4 | 0.03 | 0.03 | 0.03 | 71 | 1009.6 |
| 20260502225804 | 12 | 126 | 3.2 | 6.4 | 0.03 | 0.03 | 0.03 | 71 | 1009.6 |
| 20260502225705 | 12 | 126 | 3.2 | 6.4 | 0.03 | 0.03 | 0.03 | 71 | 1009.6 |
| 20260502225605 | 12 | 126 | 3.2 | 6.4 | 0.03 | 0.03 | 0.03 | 71 | 1009.6 |
| 20260502225505 | 12 | 126 | 3.2 | 6.4 | 0.03 | 0.03 | 0.03 | 71 | 1009.6 |
| 20260502225405 | 12 | 126 | 3.2 | 6.4 | 0.03 | 0.03 | 0.03 | 71 | 1009.6 |
| 20260502225305 | 12 | 126 | 3.2 | 6.4 | 0.03 | 0.03 | 0.03 | 71 | 1009.6 |
| 20260502225205 | 12 | 126 | 3.2 | 6.4 | 0.03 | 0.03 | 0.03 | 71 | 1009.6 |
| 20260502225104 | 12 | 126 | 3.2 | 6.4 | 0.03 | 0.03 | 0.03 | 71 | 1009.6 |
| 20260502225005 | 12 | 126 | 3.2 | 6.4 | 0.03 | 0.03 | 0.03 | 71 | 1009.6 |
| 20260502224905 | 12 | 126 | 3.2 | 4.8 | 0.03 | 0.03 | 0.03 | 70 | 1009.6 |
| 20260502224805 | 12 | 126 | 3.2 | 4.8 | 0.03 | 0.03 | 0.03 | 70 | 1009.5 |
| 20260502224705 | 12 | 125 | 3.2 | 4.8 | 0.03 | 0.03 | 0.03 | 70 | 1009.6 |
| 20260502224605 | 12 | 125 | 3.2 | 6.4 | 0.03 | 0.03 | 0.03 | 70 | 1009.6 |
| 20260502224516 | 12 | 126 | 1.6 | 6.4 | 0.03 | 0.03 | 0.03 | 70 | 1009.8 |
| 20260502224505 | 12 | 125 | 3.2 | 6.4 | 0.03 | 0.03 | 0.03 | 70 | 1009.5 |
| 20260502224405 | 12 | 125 | 3.2 | 6.4 | 0.03 | 0.03 | 0.03 | 70 | 1009.5 |
| 20260502224304 | 12 | 123 | 3.2 | 6.4 | 0.03 | 0.03 | 0.03 | 71 | 1009.5 |
| 20260502224205 | 12 | 121 | 3.2 | 6.4 | 0.03 | 0.03 | 0.03 | 70 | 1009.5 |
| 20260502223604 | 12 | 88 | 1.6 | 6.4 | 0.03 | 0.03 | 0.03 | 70 | 1009.5 |
| 20260502223505 | 12 | 80 | 1.6 | 4.8 | 0.03 | 0.03 | 0.03 | 70 | 1009.5 |
| 20260502223405 | 12 | 71 | 1.6 | 4.8 | 0.03 | 0.03 | 0.03 | 70 | 1009.5 |
| 20260502223305 | 12 | 61 | 1.6 | 4.8 | 0.03 | 0.03 | 0.03 | 70 | 1009.5 |
| 20260502223205 | 12 | 56 | 1.6 | 4.8 | 0.03 | 0.03 | 0.03 | 70 | 1009.5 |
| 20260502223111 | 12 | 72 | 1.6 | 4.8 | 0.03 | 0.03 | 0.03 | 71 | 1009.8 |
| 20260502223105 | 12 | 51 | 1.6 | 4.8 | 0.03 | 0.03 | 0.03 | 71 | 1009.6 |
| 20260502223005 | 12 | 40 | 1.6 | 4.8 | 0.03 | 0.03 | 0.03 | 71 | 1009.6 |
| 20260502222905 | 12 | 33 | 1.6 | 4.8 | 0.03 | 0.03 | 0.03 | 71 | 1009.6 |
| 20260502222804 | 12 | 23 | 1.6 | 4.8 | 0.03 | 0.03 | 0.03 | 71 | 1009.6 |
| 20260502222705 | 12 | 12 | 1.6 | 4.8 | 0.03 | 0.03 | 0.03 | 71 | 1009.6 |
| 20260502222605 | 12 | 7 | 1.6 | 3.2 | 0.03 | 0.03 | 0.03 | 71 | 1009.7 |
| 20260502222505 | 12 | 7 | 1.6 | 3.2 | 0.03 | 0.03 | 0.03 | 71 | 1009.7 |
| 20260502222405 | 12 | 7 | 0.0 | 3.2 | 0.03 | 0.03 | 0.03 | 71 | 1009.7 |
| 20260502222305 | 12 | 7 | 0.0 | 3.2 | 0.03 | 0.03 | 0.03 | 71 | 1009.7 |
| 20260502222205 | 12 | 6 | 0.0 | 3.2 | 0.03 | 0.03 | 0.03 | 71 | 1009.7 |
| 20260502222105 | 12 | 6 | 0.0 | 3.2 | 0.03 | 0.03 | 0.03 | 71 | 1009.8 |
| 20260502222005 | 12 | 6 | 0.0 | 3.2 | 0.03 | 0.03 | 0.03 | 71 | 1009.7 |
| 20260502221905 | 12 | 6 | 0.0 | 3.2 | 0.03 | 0.03 | 0.03 | 71 | 1009.6 |
| 20260502221805 | 12 | 6 | 0.0 | 1.6 | 0.03 | 0.03 | 0.03 | 71 | 1009.6 |
| 20260502221705 | 12 | 6 | 0.0 | 1.6 | 0.03 | 0.03 | 0.03 | 71 | 1009.7 |
| 20260502221604 | 12 | 6 | 0.0 | 1.6 | 0.03 | 0.03 | 0.03 | 71 | 1009.6 |
| 20260502221505 | 12 | 6 | 0.0 | 1.6 | 0.03 | 0.03 | 0.03 | 71 | 1009.6 |
| 20260502221503 | 11 | 6 | 0.0 | 1.6 | 0.03 | 0.03 | 0.03 | 71 | 1009.9 |
| 20260502221405 | 12 | 6 | 0.0 | 3.2 | 0.03 | 0.03 | 0.03 | 71 | 1009.6 |
| 20260502221305 | 12 | 6 | 0.0 | 3.2 | 0.03 | 0.03 | 0.03 | 71 | 1009.6 |
| 20260502221205 | 12 | 6 | 0.0 | 3.2 | 0.03 | 0.03 | 0.03 | 71 | 1009.6 |
| 20260502221105 | 12 | 6 | 0.0 | 3.2 | 0.03 | 0.03 | 0.03 | 71 | 1009.6 |
| 20260502221005 | 12 | 6 | 1.6 | 3.2 | 0.03 | 0.03 | 0.03 | 71 | 1009.6 |
| 20260502220905 | 12 | 7 | 1.6 | 3.2 | 0.03 | 0.03 | 0.03 | 71 | 1009.6 |
| 20260502220805 | 12 | 7 | 1.6 | 3.2 | 0.03 | 0.03 | 0.03 | 71 | 1009.6 |
| 20260502220705 | 12 | 7 | 1.6 | 3.2 | 0.03 | 0.03 | 0.03 | 71 | 1009.6 |
| 20260502220605 | 12 | 7 | 1.6 | 3.2 | 0.03 | 0.03 | 0.03 | 71 | 1009.6 |
| 20260502220505 | 12 | 7 | 1.6 | 3.2 | 0.03 | 0.03 | 0.03 | 71 | 1009.6 |
| 20260502220405 | 12 | 7 | 1.6 | 3.2 | 0.03 | 0.03 | 0.03 | 71 | 1009.6 |
| 20260502220305 | 12 | 7 | 1.6 | 3.2 | 0.03 | 0.03 | 0.03 | 71 | 1009.6 |
| 20260502220205 | 12 | 7 | 1.6 | 4.8 | 0.03 | 0.03 | 0.03 | 71 | 1009.6 |
| 20260502220108 | -17 | 6 | 0.0 | 4.8 | 0.00 | 0.00 | 0.00 | 1009.9 | |
| 20260502220105 | 12 | 7 | 1.6 | 4.8 | 0.03 | 0.03 | 0.03 | 71 | 1009.6 |
| 20260502220005 | 12 | 7 | 1.6 | 4.8 | 0.00 | 0.00 | 0.00 | 71 | 1009.6 |
| 20260502215905 | 12 | 7 | 1.6 | 4.8 | 0.00 | 0.00 | 0.00 | 71 | 1009.6 |
| 20260502215805 | 12 | 7 | 1.6 | 4.8 | 0.00 | 0.00 | 0.00 | 71 | 1009.6 |
| 20260502215704 | 12 | 7 | 1.6 | 4.8 | 0.00 | 0.00 | 0.00 | 71 | 1009.6 |
| 20260502215605 | 12 | 7 | 1.6 | 4.8 | 0.00 | 0.00 | 0.00 | 71 | 1009.6 |
| 20260502215505 | 12 | 7 | 1.6 | 4.8 | 0.00 | 0.00 | 0.00 | 71 | 1009.6 |
| 20260502215405 | 12 | 7 | 1.6 | 4.8 | 0.00 | 0.00 | 0.00 | 71 | 1009.6 |
| 20260502215305 | 12 | 7 | 1.6 | 4.8 | 0.00 | 0.00 | 0.00 | 71 | 1009.5 |
| 20260502215205 | 12 | 7 | 1.6 | 3.2 | 0.00 | 0.00 | 0.00 | 72 | 1009.6 |
| 20260502215105 | 12 | 7 | 1.6 | 3.2 | 0.00 | 0.00 | 0.00 | 72 | 1009.6 |
| 20260502215005 | 12 | 7 | 1.6 | 3.2 | 0.00 | 0.00 | 0.00 | 72 | 1009.6 |
| 20260502214905 | 12 | 7 | 1.6 | 3.2 | 0.00 | 0.00 | 0.00 | 72 | 1009.6 |
| 20260502214805 | 12 | 7 | 1.6 | 3.2 | 0.00 | 0.00 | 0.00 | 72 | 1009.6 |
| 20260502214705 | 12 | 7 | 1.6 | 3.2 | 0.00 | 0.00 | 0.00 | 72 | 1009.5 |
| 20260502214620 | -17 | 6 | 0.0 | 3.2 | 0.00 | 0.00 | 0.00 | 1009.8 | |
| 20260502214605 | 12 | 7 | 1.6 | 3.2 | 0.00 | 0.00 | 0.00 | 72 | 1009.5 |
| 20260502214505 | 12 | 7 | 1.6 | 3.2 | 0.00 | 0.00 | 0.00 | 72 | 1009.6 |
| 20260502214405 | 12 | 7 | 1.6 | 3.2 | 0.00 | 0.00 | 0.00 | 72 | 1009.5 |
| 20260502214305 | 12 | 7 | 1.6 | 4.8 | 0.00 | 0.00 | 0.00 | 72 | 1009.5 |
| 20260502214205 | 12 | 7 | 1.6 | 4.8 | 0.00 | 0.00 | 0.00 | 72 | 1009.5 |
| 20260502214105 | 12 | 7 | 1.6 | 4.8 | 0.00 | 0.00 | 0.00 | 72 | 1009.5 |
| 20260502214005 | 12 | 7 | 1.6 | 4.8 | 0.00 | 0.00 | 0.00 | 72 | 1009.5 |
| 20260502213905 | 12 | 7 | 1.6 | 4.8 | 0.00 | 0.00 | 0.00 | 72 | 1009.5 |
| 20260502213804 | 12 | 7 | 1.6 | 4.8 | 0.00 | 0.00 | 0.00 | 72 | 1009.5 |
| 20260502213705 | 12 | 7 | 1.6 | 4.8 | 0.00 | 0.00 | 0.00 | 72 | 1009.5 |
| 20260502213605 | 12 | 7 | 1.6 | 4.8 | 0.00 | 0.00 | 0.00 | 72 | 1009.5 |
| 20260502213505 | 12 | 7 | 1.6 | 4.8 | 0.00 | 0.00 | 0.00 | 72 | 1009.5 |
| 20260502213405 | 12 | 7 | 1.6 | 4.8 | 0.00 | 0.00 | 0.00 | 72 | 1009.6 |
| 20260502213305 | 12 | 7 | 1.6 | 3.2 | 0.00 | 0.00 | 0.00 | 72 | 1009.5 |
| 20260502213205 | 12 | 7 | 1.6 | 3.2 | 0.00 | 0.00 | 0.00 | 72 | 1009.5 |
| 20260502213107 | 11 | 6 | 0.0 | 3.2 | 0.00 | 0.00 | 0.00 | 73 | 1009.7 |
| 20260502213105 | 12 | 7 | 1.6 | 3.2 | 0.00 | 0.00 | 0.00 | 73 | 1009.5 |
| 20260502213004 | 12 | 7 | 1.6 | 3.2 | 0.00 | 0.00 | 0.00 | 73 | 1009.6 |
| 20260502212905 | 12 | 7 | 1.6 | 3.2 | 0.00 | 0.00 | 0.00 | 73 | 1009.6 |
| 20260502212805 | 12 | 7 | 1.6 | 3.2 | 0.00 | 0.00 | 0.00 | 73 | 1009.6 |
| 20260502212704 | 12 | 7 | 1.6 | 3.2 | 0.00 | 0.00 | 0.00 | 73 | 1009.6 |
| 20260502212605 | 12 | 7 | 1.6 | 3.2 | 0.00 | 0.00 | 0.00 | 73 | 1009.6 |
| 20260502212506 | 12 | 7 | 1.6 | 3.2 | 0.00 | 0.00 | 0.00 | 73 | 1009.6 |
| 20260502212405 | 12 | 7 | 1.6 | 3.2 | 0.00 | 0.00 | 0.00 | 73 | 1009.6 |
| 20260502212305 | 12 | 7 | 1.6 | 3.2 | 0.00 | 0.00 | 0.00 | 73 | 1009.6 |
| 20260502212205 | 12 | 7 | 1.6 | 3.2 | 0.00 | 0.00 | 0.00 | 73 | 1009.5 |
| 20260502212105 | 12 | 7 | 1.6 | 3.2 | 0.00 | 0.00 | 0.00 | 74 | 1009.6 |
| 20260502212005 | 12 | 7 | 1.6 | 3.2 | 0.00 | 0.00 | 0.00 | 74 | 1009.6 |
| 20260502211905 | 12 | 7 | 1.6 | 3.2 | 0.00 | 0.00 | 0.00 | 74 | 1009.6 |
| 20260502211805 | 12 | 7 | 1.6 | 3.2 | 0.00 | 0.00 | 0.00 | 74 | 1009.6 |
| 20260502211618 | 11 | 6 | 0.0 | 3.2 | 0.00 | 0.00 | 0.00 | 73 | 1009.8 |
| 20260502211105 | 12 | 7 | 1.6 | 4.8 | 0.00 | 0.00 | 0.00 | 74 | 1009.5 |
| 20260502211005 | 12 | 7 | 1.6 | 4.8 | 0.00 | 0.00 | 0.00 | 74 | 1009.5 |
| 20260502210904 | 12 | 7 | 1.6 | 4.8 | 0.00 | 0.00 | 0.00 | 74 | 1009.5 |
| 20260502210805 | 12 | 7 | 1.6 | 4.8 | 0.00 | 0.00 | 0.00 | 74 | 1009.5 |
| 20260502210705 | 12 | 7 | 1.6 | 4.8 | 0.00 | 0.00 | 0.00 | 74 | 1009.5 |
| 20260502210605 | 12 | 7 | 1.6 | 4.8 | 0.00 | 0.00 | 0.00 | 74 | 1009.5 |
| 20260502210505 | 12 | 7 | 1.6 | 3.2 | 0.00 | 0.00 | 0.00 | 74 | 1009.5 |
| 20260502210404 | 12 | 7 | 1.6 | 4.8 | 0.00 | 0.00 | 0.00 | 74 | 1009.5 |
| 20260502210305 | 12 | 7 | 1.6 | 4.8 | 0.00 | 0.00 | 0.00 | 74 | 1009.6 |
| 20260502210205 | 12 | 7 | 3.2 | 4.8 | 0.00 | 0.00 | 0.00 | 74 | 1009.6 |
| 20260502210117 | -17 | 6 | 0.0 | 4.8 | 0.00 | 0.00 | 0.00 | 1009.9 | |
| 20260502210105 | 12 | 7 | 3.2 | 4.8 | 0.00 | 0.00 | 0.00 | 74 | 1009.7 |
| 20260502210005 | 12 | 7 | 3.2 | 4.8 | 0.00 | 0.00 | 0.00 | 74 | 1009.7 |
| 20260502205905 | 12 | 7 | 3.2 | 4.8 | 0.00 | 0.00 | 0.00 | 74 | 1009.7 |
| 20260502205804 | 12 | 7 | 3.2 | 6.4 | 0.00 | 0.00 | 0.00 | 74 | 1009.7 |
| 20260502205705 | 12 | 7 | 3.2 | 6.4 | 0.00 | 0.00 | 0.00 | 74 | 1009.6 |
| 20260502205605 | 12 | 7 | 4.8 | 6.4 | 0.00 | 0.00 | 0.00 | 74 | 1009.6 |
| 20260502205505 | 12 | 8 | 4.8 | 6.4 | 0.00 | 0.00 | 0.00 | 74 | 1009.6 |
| 20260502205405 | 12 | 9 | 4.8 | 6.4 | 0.00 | 0.00 | 0.00 | 74 | 1009.6 |
| 20260502205305 | 12 | 10 | 4.8 | 6.4 | 0.00 | 0.00 | 0.00 | 74 | 1009.6 |
| 20260502205205 | 12 | 11 | 4.8 | 6.4 | 0.00 | 0.00 | 0.00 | 74 | 1009.6 |
| 20260502205105 | 12 | 12 | 4.8 | 6.4 | 0.00 | 0.00 | 0.00 | 74 | 1009.6 |
| 20260502205004 | 12 | 13 | 4.8 | 6.4 | 0.00 | 0.00 | 0.00 | 74 | 1009.6 |
| 20260502204905 | 12 | 14 | 4.8 | 6.4 | 0.00 | 0.00 | 0.00 | 74 | 1009.6 |
| 20260502204805 | 12 | 14 | 4.8 | 6.4 | 0.00 | 0.00 | 0.00 | 74 | 1009.6 |
| 20260502204705 | 12 | 14 | 4.8 | 6.4 | 0.00 | 0.00 | 0.00 | 74 | 1009.6 |
| 20260502204618 | 11 | 8 | 4.8 | 6.4 | 0.00 | 0.00 | 0.00 | 74 | 1009.8 |
| 20260502204605 | 12 | 14 | 4.8 | 6.4 | 0.00 | 0.00 | 0.00 | 74 | 1009.6 |
| 20260502204505 | 12 | 13 | 4.8 | 6.4 | 0.00 | 0.00 | 0.00 | 74 | 1009.6 |
| 20260502204405 | 12 | 13 | 4.8 | 6.4 | 0.00 | 0.00 | 0.00 | 74 | 1009.6 |
| 20260502204304 | 12 | 12 | 4.8 | 6.4 | 0.00 | 0.00 | 0.00 | 74 | 1009.7 |
| 20260502204205 | 12 | 11 | 4.8 | 6.4 | 0.00 | 0.00 | 0.00 | 74 | 1009.7 |
| 20260502204105 | 12 | 10 | 4.8 | 6.4 | 0.00 | 0.00 | 0.00 | 74 | 1009.7 |
| 20260502204005 | 12 | 9 | 4.8 | 6.4 | 0.00 | 0.00 | 0.00 | 74 | 1009.7 |
| 20260502203905 | 12 | 9 | 4.8 | 6.4 | 0.00 | 0.00 | 0.00 | 74 | 1009.7 |
| 20260502203805 | 12 | 9 | 4.8 | 6.4 | 0.00 | 0.00 | 0.00 | 74 | 1009.7 |
| 20260502203705 | 12 | 8 | 4.8 | 6.4 | 0.00 | 0.00 | 0.00 | 75 | 1009.7 |
| 20260502203605 | 12 | 7 | 4.8 | 8.0 | 0.00 | 0.00 | 0.00 | 75 | 1009.7 |
| 20260502203504 | 12 | 6 | 4.8 | 8.0 | 0.00 | 0.00 | 0.00 | 75 | 1009.7 |
| 20260502203405 | 12 | 4 | 6.4 | 8.0 | 0.00 | 0.00 | 0.00 | 75 | 1009.8 |
| 20260502203305 | 12 | 2 | 6.4 | 8.0 | 0.00 | 0.00 | 0.00 | 75 | 1009.7 |
| 20260502203205 | 12 | 1 | 6.4 | 8.0 | 0.00 | 0.00 | 0.00 | 75 | 1009.8 |
| 20260502203105 | 12 | 358 | 6.4 | 8.0 | 0.00 | 0.00 | 0.00 | 75 | 1009.8 |
| 20260502203103 | 12 | 9 | 3.2 | 8.0 | 0.00 | 0.00 | 0.00 | 75 | 1010.0 |
| 20260502203005 | 12 | 356 | 6.4 | 8.0 | 0.00 | 0.00 | 0.00 | 75 | 1009.8 |
| 20260502202905 | 12 | 355 | 6.4 | 8.0 | 0.00 | 0.00 | 0.00 | 75 | 1009.7 |
| 20260502202805 | 12 | 353 | 6.4 | 8.0 | 0.00 | 0.00 | 0.00 | 76 | 1009.8 |
| 20260502202705 | 12 | 352 | 6.4 | 9.7 | 0.00 | 0.00 | 0.00 | 75 | 1009.8 |
| 20260502202605 | 12 | 351 | 6.4 | 9.7 | 0.00 | 0.00 | 0.00 | 75 | 1009.8 |
| 20260502202505 | 12 | 350 | 6.4 | 9.7 | 0.00 | 0.00 | 0.00 | 75 | 1009.8 |
| 20260502202405 | 12 | 350 | 6.4 | 9.7 | 0.00 | 0.00 | 0.00 | 75 | 1009.8 |
| 20260502202305 | 12 | 349 | 6.4 | 9.7 | 0.00 | 0.00 | 0.00 | 75 | 1009.8 |
| 20260502202204 | 12 | 349 | 6.4 | 9.7 | 0.00 | 0.00 | 0.00 | 75 | 1009.8 |
| 20260502202105 | 12 | 349 | 6.4 | 9.7 | 0.00 | 0.00 | 0.00 | 74 | 1009.9 |
| 20260502202005 | 12 | 350 | 6.4 | 9.7 | 0.00 | 0.00 | 0.00 | 74 | 1009.9 |
| 20260502201904 | 12 | 350 | 6.4 | 9.7 | 0.00 | 0.00 | 0.00 | 74 | 1009.8 |
| 20260502201805 | 12 | 351 | 6.4 | 9.7 | 0.00 | 0.00 | 0.00 | 74 | 1009.9 |
| 20260502201705 | 12 | 352 | 6.4 | 9.7 | 0.00 | 0.00 | 0.00 | 74 | 1009.9 |
| 20260502201618 | 12 | 344 | 6.4 | 9.7 | 0.00 | 0.00 | 0.00 | 74 | 1010.1 |
| 20260502201605 | 12 | 354 | 6.4 | 8.0 | 0.00 | 0.00 | 0.00 | 74 | 1009.9 |
| 20260502201505 | 12 | 356 | 4.8 | 8.0 | 0.00 | 0.00 | 0.00 | 74 | 1009.9 |
| 20260502201405 | 12 | 358 | 4.8 | 6.4 | 0.00 | 0.00 | 0.00 | 74 | 1009.9 |
| 20260502201305 | 12 | 1 | 4.8 | 6.4 | 0.00 | 0.00 | 0.00 | 74 | 1009.9 |
| 20260502201205 | 12 | 3 | 4.8 | 8.0 | 0.00 | 0.00 | 0.00 | 74 | 1009.9 |
| 20260502201104 | 12 | 4 | 6.4 | 8.0 | 0.00 | 0.00 | 0.00 | 74 | 1009.9 |
| 20260502201005 | 12 | 6 | 6.4 | 8.0 | 0.00 | 0.00 | 0.00 | 74 | 1010.0 |
| 20260502200905 | 12 | 7 | 6.4 | 8.0 | 0.00 | 0.00 | 0.00 | 74 | 1010.0 |
| 20260502200804 | 12 | 9 | 6.4 | 9.7 | 0.00 | 0.00 | 0.00 | 74 | 1010.0 |
| 20260502200705 | 12 | 10 | 6.4 | 9.7 | 0.00 | 0.00 | 0.00 | 74 | 1010.0 |
| 20260502200605 | 12 | 11 | 6.4 | 11.3 | 0.00 | 0.00 | 0.00 | 73 | 1010.0 |
| 20260502200505 | 12 | 10 | 8.0 | 11.3 | 0.00 | 0.00 | 0.00 | 73 | 1010.1 |
| 20260502200405 | 12 | 10 | 8.0 | 11.3 | 0.00 | 0.00 | 0.00 | 73 | 1010.0 |
| 20260502200305 | 12 | 9 | 8.0 | 11.3 | 0.00 | 0.00 | 0.00 | 73 | 1010.0 |
| 20260502200205 | 12 | 9 | 8.0 | 11.3 | 0.00 | 0.00 | 0.00 | 73 | 1010.0 |
| 20260502200105 | 12 | 8 | 8.0 | 11.3 | 0.00 | 0.00 | 0.00 | 73 | 1010.0 |
| 20260502200011 | 12 | 11 | 6.4 | 9.7 | 0.00 | 0.00 | 0.00 | 73 | 1010.2 |
| 20260502200005 | 12 | 7 | 8.0 | 11.3 | 0.00 | 0.00 | 0.00 | 73 | 1010.0 |
| 20260502195904 | 12 | 3 | 8.0 | 12.9 | 0.00 | 0.00 | 0.00 | 73 | 1010.0 |
| 20260502195805 | 12 | 1 | 8.0 | 12.9 | 0.00 | 0.00 | 0.00 | 73 | 1010.0 |
| 20260502195704 | 12 | 358 | 8.0 | 12.9 | 0.00 | 0.00 | 0.00 | 72 | 1010.0 |
| 20260502195605 | 12 | 356 | 9.7 | 12.9 | 0.00 | 0.00 | 0.00 | 72 | 1010.0 |
| 20260502195505 | 12 | 355 | 9.7 | 12.9 | 0.00 | 0.00 | 0.00 | 72 | 1010.0 |
| 20260502195405 | 12 | 355 | 9.7 | 12.9 | 0.00 | 0.00 | 0.00 | 72 | 1010.0 |
| 20260502195305 | 12 | 354 | 9.7 | 12.9 | 0.00 | 0.00 | 0.00 | 73 | 1010.1 |
| 20260502195204 | 12 | 353 | 9.7 | 12.9 | 0.00 | 0.00 | 0.00 | 73 | 1010.1 |
| 20260502195105 | 12 | 353 | 9.7 | 12.9 | 0.00 | 0.00 | 0.00 | 73 | 1010.2 |
| 20260502195005 | 12 | 353 | 9.7 | 12.9 | 0.00 | 0.00 | 0.00 | 73 | 1010.1 |
| 20260502194904 | 12 | 354 | 9.7 | 12.9 | 0.00 | 0.00 | 0.00 | 73 | 1010.1 |
| 20260502194805 | 12 | 354 | 9.7 | 12.9 | 0.00 | 0.00 | 0.00 | 73 | 1010.1 |
| 20260502194705 | 12 | 355 | 9.7 | 12.9 | 0.00 | 0.00 | 0.00 | 73 | 1010.1 |
| 20260502194619 | 12 | 354 | 9.7 | 12.9 | 0.00 | 0.00 | 0.00 | 73 | 1010.3 |
| 20260502194605 | 12 | 356 | 8.0 | 12.9 | 0.00 | 0.00 | 0.00 | 72 | 1010.1 |
| 20260502194505 | 12 | 356 | 8.0 | 12.9 | 0.00 | 0.00 | 0.00 | 72 | 1010.1 |
| 20260502193905 | 12 | 5 | 4.8 | 8.0 | 0.00 | 0.00 | 0.00 | 70 | 1010.0 |
| 20260502193805 | 12 | 6 | 4.8 | 6.4 | 0.00 | 0.00 | 0.00 | 70 | 1010.1 |
| 20260502193705 | 12 | 7 | 4.8 | 6.4 | 0.00 | 0.00 | 0.00 | 70 | 1010.0 |
| 20260502193605 | 12 | 9 | 4.8 | 6.4 | 0.00 | 0.00 | 0.00 | 70 | 1010.1 |
| 20260502193505 | 12 | 10 | 3.2 | 6.4 | 0.00 | 0.00 | 0.00 | 70 | 1010.1 |
| 20260502193405 | 12 | 12 | 3.2 | 6.4 | 0.00 | 0.00 | 0.00 | 70 | 1010.1 |
| 20260502193305 | 12 | 15 | 3.2 | 6.4 | 0.00 | 0.00 | 0.00 | 70 | 1010.1 |
| 20260502193205 | 12 | 17 | 3.2 | 6.4 | 0.00 | 0.00 | 0.00 | 70 | 1010.2 |
| 20260502193105 | 12 | 18 | 3.2 | 4.8 | 0.00 | 0.00 | 0.00 | 70 | 1010.1 |
| 20260502193009 | 12 | 17 | 1.6 | 4.8 | 0.00 | 0.00 | 0.00 | 70 | 1010.4 |
| 20260502193004 | 12 | 18 | 3.2 | 4.8 | 0.00 | 0.00 | 0.00 | 70 | 1010.2 |
| 20260502192905 | 12 | 18 | 3.2 | 4.8 | 0.00 | 0.00 | 0.00 | 70 | 1010.1 |
| 20260502192805 | 12 | 18 | 3.2 | 6.4 | 0.00 | 0.00 | 0.00 | 70 | 1010.1 |
| 20260502192705 | 12 | 18 | 3.2 | 6.4 | 0.00 | 0.00 | 0.00 | 70 | 1010.2 |
| 20260502192604 | 12 | 18 | 3.2 | 6.4 | 0.00 | 0.00 | 0.00 | 70 | 1010.2 |
| 20260502192505 | 12 | 18 | 3.2 | 6.4 | 0.00 | 0.00 | 0.00 | 70 | 1010.2 |
| 20260502192405 | 12 | 18 | 3.2 | 6.4 | 0.00 | 0.00 | 0.00 | 70 | 1010.2 |
| 20260502192305 | 12 | 18 | 3.2 | 6.4 | 0.00 | 0.00 | 0.00 | 70 | 1010.1 |
| 20260502192205 | 12 | 18 | 3.2 | 6.4 | 0.00 | 0.00 | 0.00 | 70 | 1010.2 |
| 20260502192105 | 12 | 18 | 3.2 | 6.4 | 0.00 | 0.00 | 0.00 | 70 | 1010.2 |
| 20260502192005 | 12 | 18 | 3.2 | 6.4 | 0.00 | 0.00 | 0.00 | 70 | 1010.2 |
| 20260502191905 | 12 | 18 | 3.2 | 6.4 | 0.00 | 0.00 | 0.00 | 70 | 1010.2 |
| 20260502191804 | 12 | 18 | 3.2 | 6.4 | 0.00 | 0.00 | 0.00 | 70 | 1010.2 |
| 20260502191705 | 12 | 18 | 3.2 | 6.4 | 0.00 | 0.00 | 0.00 | 70 | 1010.2 |
| 20260502191613 | 12 | 17 | 3.2 | 6.4 | 0.00 | 0.00 | 0.00 | 70 | 1010.5 |
| 20260502191605 | 12 | 19 | 4.8 | 6.4 | 0.00 | 0.00 | 0.00 | 70 | 1010.2 |
| 20260502191505 | 12 | 19 | 4.8 | 6.4 | 0.00 | 0.00 | 0.00 | 70 | 1010.3 |
| 20260502191404 | 12 | 20 | 4.8 | 6.4 | 0.00 | 0.00 | 0.00 | 70 | 1010.3 |
| 20260502191304 | 12 | 21 | 4.8 | 6.4 | 0.00 | 0.00 | 0.00 | 70 | 1010.3 |
| 20260502191205 | 12 | 22 | 4.8 | 6.4 | 0.00 | 0.00 | 0.00 | 70 | 1010.3 |
| 20260502191105 | 12 | 22 | 4.8 | 6.4 | 0.00 | 0.00 | 0.00 | 71 | 1010.3 |
| 20260502191005 | 12 | 23 | 4.8 | 6.4 | 0.00 | 0.00 | 0.00 | 71 | 1010.4 |
| 20260502190404 | 12 | 17 | 4.8 | 6.4 | 0.00 | 0.00 | 0.00 | 71 | 1010.4 |
| 20260502190305 | 12 | 15 | 4.8 | 6.4 | 0.00 | 0.00 | 0.00 | 71 | 1010.4 |
| 20260502190204 | 12 | 13 | 4.8 | 6.4 | 0.00 | 0.00 | 0.00 | 71 | 1010.4 |
| 20260502190105 | 12 | 11 | 3.2 | 6.4 | 0.00 | 0.00 | 0.00 | 71 | 1010.4 |
| 20260502190011 | 12 | 23 | 3.2 | 6.4 | 0.00 | 0.00 | 0.00 | 71 | 1010.6 |
| 20260502190004 | 12 | 8 | 3.2 | 6.4 | 0.00 | 0.00 | 0.00 | 71 | 1010.4 |
| 20260502185905 | 12 | 6 | 3.2 | 6.4 | 0.00 | 0.00 | 0.00 | 71 | 1010.4 |
| 20260502185805 | 12 | 4 | 3.2 | 6.4 | 0.00 | 0.00 | 0.00 | 71 | 1010.4 |
| 20260502185705 | 12 | 2 | 3.2 | 4.8 | 0.00 | 0.00 | 0.00 | 71 | 1010.4 |
| 20260502185605 | 12 | 2 | 3.2 | 6.4 | 0.00 | 0.00 | 0.00 | 71 | 1010.5 |
| 20260502185504 | 12 | 2 | 3.2 | 8.0 | 0.00 | 0.00 | 0.00 | 71 | 1010.5 |
| 20260502185405 | 12 | 2 | 3.2 | 8.0 | 0.00 | 0.00 | 0.00 | 71 | 1010.5 |
| 20260502185306 | 12 | 2 | 3.2 | 8.0 | 0.00 | 0.00 | 0.00 | 71 | 1010.5 |
| 20260502185205 | 12 | 2 | 3.2 | 8.0 | 0.00 | 0.00 | 0.00 | 71 | 1010.6 |
| 20260502185105 | 12 | 2 | 4.8 | 8.0 | 0.00 | 0.00 | 0.00 | 71 | 1010.5 |
| 20260502185005 | 12 | 2 | 4.8 | 8.0 | 0.00 | 0.00 | 0.00 | 71 | 1010.5 |
| 20260502184611 | 12 | 2 | 4.8 | 8.0 | 0.00 | 0.00 | 0.00 | 71 | 1010.7 |
| 20260502183805 | 12 | 341 | 6.4 | 9.7 | 0.00 | 0.00 | 0.00 | 72 | 1010.6 |
| 20260502183705 | 12 | 340 | 6.4 | 9.7 | 0.00 | 0.00 | 0.00 | 73 | 1010.6 |
| 20260502183605 | 12 | 339 | 8.0 | 11.3 | 0.00 | 0.00 | 0.00 | 73 | 1010.6 |
| 20260502183505 | 12 | 338 | 8.0 | 11.3 | 0.00 | 0.00 | 0.00 | 73 | 1010.6 |
| 20260502183405 | 12 | 337 | 8.0 | 11.3 | 0.00 | 0.00 | 0.00 | 73 | 1010.6 |
| 20260502183304 | 12 | 336 | 9.7 | 12.9 | 0.00 | 0.00 | 0.00 | 73 | 1010.7 |
| 20260502183205 | 12 | 336 | 9.7 | 12.9 | 0.00 | 0.00 | 0.00 | 73 | 1010.7 |
| 20260502183105 | 12 | 336 | 9.7 | 12.9 | 0.00 | 0.00 | 0.00 | 74 | 1010.7 |
| 20260502183005 | 12 | 331 | 6.4 | 12.9 | 0.00 | 0.00 | 0.00 | 73 | 1010.9 |
| 20260502182905 | 12 | 335 | 11.3 | 12.9 | 0.00 | 0.00 | 0.00 | 73 | 1010.6 |
| 20260502182805 | 12 | 334 | 11.3 | 12.9 | 0.00 | 0.00 | 0.00 | 73 | 1010.6 |
| 20260502182705 | 12 | 334 | 11.3 | 12.9 | 0.00 | 0.00 | 0.00 | 73 | 1010.6 |
| 20260502182605 | 13 | 333 | 11.3 | 12.9 | 0.00 | 0.00 | 0.00 | 73 | 1010.6 |
| 20260502182504 | 13 | 331 | 11.3 | 12.9 | 0.00 | 0.00 | 0.00 | 73 | 1010.6 |
| 20260502182404 | 13 | 330 | 11.3 | 14.5 | 0.00 | 0.00 | 0.00 | 74 | 1010.6 |
| 20260502182306 | 13 | 329 | 11.3 | 14.5 | 0.00 | 0.00 | 0.00 | 74 | 1010.7 |
| 20260502182205 | 13 | 328 | 11.3 | 14.5 | 0.00 | 0.00 | 0.00 | 74 | 1010.7 |
| 20260502182105 | 13 | 328 | 12.9 | 16.1 | 0.00 | 0.00 | 0.00 | 74 | 1010.7 |
| 20260502182004 | 13 | 327 | 12.9 | 16.1 | 0.00 | 0.00 | 0.00 | 74 | 1010.6 |
| 20260502181905 | 13 | 326 | 12.9 | 16.1 | 0.00 | 0.00 | 0.00 | 74 | 1010.7 |
| 20260502181804 | 13 | 326 | 12.9 | 16.1 | 0.00 | 0.00 | 0.00 | 74 | 1010.6 |
| 20260502181705 | 13 | 325 | 12.9 | 16.1 | 0.00 | 0.00 | 0.00 | 74 | 1010.6 |
| 20260502181610 | 12 | 329 | 11.3 | 16.1 | 0.00 | 0.00 | 0.00 | 74 | 1010.8 |
| 20260502181605 | 13 | 325 | 12.9 | 16.1 | 0.00 | 0.00 | 0.00 | 74 | 1010.7 |
| 20260502181504 | 13 | 325 | 12.9 | 16.1 | 0.00 | 0.00 | 0.00 | 74 | 1010.7 |
| 20260502181405 | 13 | 325 | 14.5 | 16.1 | 0.00 | 0.00 | 0.00 | 74 | 1010.7 |
| 20260502181304 | 13 | 324 | 14.5 | 17.7 | 0.00 | 0.00 | 0.00 | 74 | 1010.6 |
| 20260502181205 | 12 | 324 | 14.5 | 17.7 | 0.00 | 0.00 | 0.00 | 74 | 1010.6 |
| 20260502181105 | 12 | 324 | 14.5 | 17.7 | 0.00 | 0.00 | 0.00 | 74 | 1010.7 |
| 20260502181005 | 12 | 323 | 14.5 | 17.7 | 0.00 | 0.00 | 0.00 | 74 | 1010.6 |
| 20260502180904 | 12 | 322 | 12.9 | 17.7 | 0.00 | 0.00 | 0.00 | 74 | 1010.7 |
| 20260502180805 | 12 | 321 | 12.9 | 17.7 | 0.00 | 0.00 | 0.00 | 74 | 1010.6 |
| 20260502180705 | 12 | 320 | 12.9 | 17.7 | 0.00 | 0.00 | 0.00 | 74 | 1010.6 |
| 20260502180605 | 12 | 318 | 11.3 | 17.7 | 0.00 | 0.00 | 0.00 | 75 | 1010.6 |
| 20260502180505 | 12 | 316 | 11.3 | 17.7 | 0.00 | 0.00 | 0.00 | 75 | 1010.6 |
| 20260502180404 | 12 | 313 | 9.7 | 17.7 | 0.00 | 0.00 | 0.00 | 75 | 1010.6 |
| 20260502180305 | 12 | 311 | 9.7 | 16.1 | 0.00 | 0.00 | 0.00 | 77 | 1010.6 |
| 20260502180204 | 12 | 308 | 8.0 | 16.1 | 0.00 | 0.00 | 0.00 | 77 | 1010.6 |
| 20260502180105 | 12 | 306 | 8.0 | 14.5 | 0.00 | 0.00 | 0.00 | 77 | 1010.6 |
| 20260502170505 | 11 | 44 | 1.6 | 1.6 | 0.00 | 0.00 | 0.00 | 81 | 1011.1 |
| 20260502170404 | 11 | 44 | 1.6 | 3.2 | 0.00 | 0.00 | 0.00 | 81 | 1011.1 |
| 20260502170305 | 11 | 44 | 1.6 | 3.2 | 0.00 | 0.00 | 0.00 | 81 | 1011.1 |
| 20260502170205 | 11 | 44 | 1.6 | 3.2 | 0.00 | 0.00 | 0.00 | 81 | 1011.1 |
| 20260502170115 | 10 | 44 | 0.0 | 3.2 | 0.00 | 0.00 | 0.00 | 81 | 1011.3 |
| 20260502170104 | 11 | 45 | 1.6 | 3.2 | 0.00 | 0.00 | 0.00 | 82 | 1011.1 |
| 20260502164305 | 10 | 77 | 1.6 | 3.2 | 0.00 | 0.00 | 0.00 | 82 | 1010.9 |
| 20260502164204 | 10 | 77 | 1.6 | 3.2 | 0.00 | 0.00 | 0.00 | 82 | 1010.9 |
| 20260502164105 | 10 | 78 | 1.6 | 4.8 | 0.00 | 0.00 | 0.00 | 83 | 1010.9 |
| 20260502164005 | 10 | 78 | 1.6 | 4.8 | 0.00 | 0.00 | 0.00 | 83 | 1010.9 |
| 20260502163904 | 10 | 78 | 1.6 | 4.8 | 0.00 | 0.00 | 0.00 | 83 | 1010.9 |
| 20260502163805 | 10 | 78 | 1.6 | 4.8 | 0.00 | 0.00 | 0.00 | 83 | 1010.9 |
| 20260502163705 | 10 | 78 | 1.6 | 4.8 | 0.00 | 0.00 | 0.00 | 83 | 1010.9 |
| 20260502163604 | 10 | 78 | 1.6 | 4.8 | 0.00 | 0.00 | 0.00 | 83 | 1010.9 |
| 20260502163505 | 10 | 78 | 1.6 | 4.8 | 0.00 | 0.00 | 0.00 | 83 | 1010.9 |
| 20260502163405 | 10 | 78 | 1.6 | 4.8 | 0.00 | 0.00 | 0.00 | 83 | 1011.1 |
| 20260502163113 | -17 | 80 | 1.6 | 4.8 | 0.00 | 0.00 | 0.00 | 1011.3 | |
| 20260502162204 | 11 | 301 | 3.2 | 4.8 | 0.00 | 0.00 | 0.00 | 83 | 1011.3 |
| 20260502162105 | 11 | 302 | 3.2 | 4.8 | 0.00 | 0.00 | 0.00 | 83 | 1011.3 |
| 20260502162005 | 11 | 302 | 3.2 | 4.8 | 0.00 | 0.00 | 0.00 | 83 | 1011.4 |
| 20260502161905 | 11 | 301 | 3.2 | 4.8 | 0.00 | 0.00 | 0.00 | 83 | 1011.3 |
| 20260502161805 | 11 | 302 | 3.2 | 4.8 | 0.00 | 0.00 | 0.00 | 83 | 1011.3 |
| 20260502161705 | 11 | 301 | 3.2 | 4.8 | 0.00 | 0.00 | 0.00 | 83 | 1011.3 |
| 20260502161608 | -17 | 302 | 1.6 | 4.8 | 0.00 | 0.00 | 0.00 | 1011.5 | |
| 20260502161604 | 11 | 301 | 3.2 | 4.8 | 0.00 | 0.00 | 0.00 | 83 | 1011.3 |
| 20260502161505 | 11 | 302 | 3.2 | 4.8 | 0.00 | 0.00 | 0.00 | 83 | 1011.4 |
| 20260502161404 | 11 | 302 | 3.2 | 4.8 | 0.00 | 0.00 | 0.00 | 83 | 1011.4 |
| 20260502161305 | 11 | 302 | 3.2 | 4.8 | 0.00 | 0.00 | 0.00 | 83 | 1011.4 |
| 20260502161205 | 11 | 302 | 3.2 | 4.8 | 0.00 | 0.00 | 0.00 | 83 | 1011.4 |
| 20260502161104 | 11 | 301 | 3.2 | 4.8 | 0.00 | 0.00 | 0.00 | 83 | 1011.4 |
| 20260502161005 | 11 | 302 | 3.2 | 4.8 | 0.00 | 0.00 | 0.00 | 83 | 1011.3 |
| 20260502160904 | 11 | 302 | 3.2 | 4.8 | 0.00 | 0.00 | 0.00 | 83 | 1011.3 |
| 20260502160805 | 11 | 301 | 3.2 | 4.8 | 0.00 | 0.00 | 0.00 | 83 | 1011.3 |
| 20260502160705 | 11 | 301 | 3.2 | 4.8 | 0.00 | 0.00 | 0.00 | 83 | 1011.3 |
| 20260502160604 | 11 | 302 | 3.2 | 4.8 | 0.00 | 0.00 | 0.00 | 83 | 1011.3 |
| 20260502160505 | 11 | 301 | 3.2 | 4.8 | 0.00 | 0.00 | 0.00 | 83 | 1011.4 |
| 20260502160405 | 11 | 302 | 3.2 | 4.8 | 0.00 | 0.00 | 0.00 | 83 | 1011.4 |
| 20260502160304 | 11 | 302 | 3.2 | 4.8 | 0.00 | 0.00 | 0.00 | 83 | 1011.4 |
| 20260502160205 | 11 | 302 | 3.2 | 4.8 | 0.00 | 0.00 | 0.00 | 83 | 1011.4 |
| 20260502160112 | -17 | 302 | 1.6 | 4.8 | 0.00 | 0.00 | 0.00 | 1011.5 | |
| 20260502160105 | 11 | 302 | 3.2 | 4.8 | 0.00 | 0.00 | 0.00 | 83 | 1011.3 |
| 20260502152305 | 11 | 289 | 3.2 | 6.4 | 0.00 | 0.00 | 0.00 | 82 | 1011.6 |
| 20260502152205 | 11 | 289 | 3.2 | 6.4 | 0.00 | 0.00 | 0.00 | 82 | 1011.6 |
| 20260502152104 | 11 | 289 | 3.2 | 6.4 | 0.00 | 0.00 | 0.00 | 82 | 1011.7 |
| 20260502152005 | 11 | 289 | 3.2 | 4.8 | 0.00 | 0.00 | 0.00 | 82 | 1011.7 |
| 20260502151905 | 11 | 289 | 3.2 | 4.8 | 0.00 | 0.00 | 0.00 | 82 | 1011.7 |
| 20260502151804 | 11 | 288 | 3.2 | 4.8 | 0.00 | 0.00 | 0.00 | 82 | 1011.6 |
| 20260502151705 | 11 | 290 | 3.2 | 4.8 | 0.00 | 0.00 | 0.00 | 82 | 1011.6 |
| 20260502151605 | 11 | 291 | 3.2 | 4.8 | 0.00 | 0.00 | 0.00 | 82 | 1011.6 |
| 20260502151513 | 11 | 289 | 1.6 | 4.8 | 0.00 | 0.00 | 0.00 | 82 | 1011.9 |
| 20260502151504 | 11 | 293 | 3.2 | 4.8 | 0.00 | 0.00 | 0.00 | 82 | 1011.6 |
| 20260502151405 | 11 | 295 | 3.2 | 4.8 | 0.00 | 0.00 | 0.00 | 82 | 1011.6 |
| 20260502151305 | 11 | 298 | 3.2 | 4.8 | 0.00 | 0.00 | 0.00 | 82 | 1011.6 |
| 20260502151205 | 11 | 300 | 3.2 | 4.8 | 0.00 | 0.00 | 0.00 | 82 | 1011.6 |
| 20260502151105 | 11 | 302 | 3.2 | 4.8 | 0.00 | 0.00 | 0.00 | 82 | 1011.6 |
| 20260502151004 | 11 | 305 | 3.2 | 4.8 | 0.00 | 0.00 | 0.00 | 82 | 1011.6 |
| 20260502150905 | 11 | 308 | 3.2 | 4.8 | 0.00 | 0.00 | 0.00 | 82 | 1011.6 |
| 20260502150805 | 11 | 311 | 3.2 | 4.8 | 0.00 | 0.00 | 0.00 | 82 | 1011.7 |
| 20260502150705 | 11 | 313 | 3.2 | 4.8 | 0.00 | 0.00 | 0.00 | 82 | 1011.6 |
| 20260502150604 | 11 | 314 | 3.2 | 6.4 | 0.00 | 0.00 | 0.00 | 82 | 1011.6 |
| 20260502150505 | 11 | 315 | 3.2 | 6.4 | 0.00 | 0.00 | 0.00 | 82 | 1011.6 |
| 20260502150405 | 11 | 317 | 3.2 | 6.4 | 0.00 | 0.00 | 0.00 | 82 | 1011.6 |
| 20260502150304 | 11 | 319 | 3.2 | 6.4 | 0.00 | 0.00 | 0.00 | 82 | 1011.6 |
| 20260502150205 | 11 | 322 | 3.2 | 6.4 | 0.00 | 0.00 | 0.00 | 82 | 1011.5 |
| 20260502150118 | 11 | 319 | 1.6 | 6.4 | 0.00 | 0.00 | 0.00 | 82 | 1011.8 |
| 20260502150104 | 11 | 325 | 4.8 | 6.4 | 0.00 | 0.00 | 0.00 | 82 | 1011.5 |
| 20260502140107 | 11 | 240 | 3.2 | 4.8 | 0.00 | 0.00 | 0.00 | 82 | 1011.9 |
| 20260502140104 | 11 | 240 | 3.2 | 4.8 | 0.00 | 0.00 | 0.00 | 82 | 1011.7 |
| 20260502130705 | 11 | 173 | 1.6 | 4.8 | 0.00 | 0.00 | 0.00 | 83 | 1011.7 |
| 20260502130604 | 11 | 173 | 1.6 | 6.4 | 0.00 | 0.00 | 0.00 | 83 | 1011.6 |
| 20260502130504 | 11 | 173 | 1.6 | 6.4 | 0.00 | 0.00 | 0.00 | 83 | 1011.6 |
| 20260502130405 | 11 | 173 | 1.6 | 6.4 | 0.00 | 0.00 | 0.00 | 83 | 1011.6 |
| 20260502130304 | 11 | 173 | 1.6 | 6.4 | 0.00 | 0.00 | 0.00 | 84 | 1011.6 |
| 20260502130205 | 11 | 173 | 1.6 | 6.4 | 0.00 | 0.00 | 0.00 | 84 | 1011.6 |
| 20260502130107 | 11 | 173 | 0.0 | 6.4 | 0.00 | 0.00 | 0.00 | 84 | 1011.8 |
| 20260502130104 | 11 | 173 | 1.6 | 6.4 | 0.00 | 0.00 | 0.00 | 84 | 1011.6 |
| 20260502123804 | 11 | 144 | 4.8 | 11.3 | 0.00 | 0.00 | 0.00 | 84 | 1011.3 |
| 20260502123704 | 11 | 149 | 4.8 | 11.3 | 0.00 | 0.00 | 0.00 | 84 | 1011.4 |
| 20260502123605 | 11 | 154 | 4.8 | 11.3 | 0.00 | 0.00 | 0.00 | 84 | 1011.4 |
| 20260502123504 | 11 | 158 | 4.8 | 11.3 | 0.00 | 0.00 | 0.00 | 84 | 1011.5 |
| 20260502123404 | 11 | 161 | 3.2 | 11.3 | 0.00 | 0.00 | 0.00 | 83 | 1011.4 |
| 20260502123304 | 11 | 164 | 3.2 | 11.3 | 0.00 | 0.00 | 0.00 | 83 | 1011.4 |
| 20260502123204 | 11 | 170 | 3.2 | 9.7 | 0.00 | 0.00 | 0.00 | 83 | 1011.5 |
| 20260502123111 | 10 | 167 | 3.2 | 6.4 | 0.00 | 0.00 | 0.00 | 83 | 1011.7 |
| 20260502123105 | 11 | 174 | 3.2 | 6.4 | 0.00 | 0.00 | 0.00 | 83 | 1011.4 |
| 20260502123004 | 11 | 176 | 3.2 | 6.4 | 0.00 | 0.00 | 0.00 | 83 | 1011.5 |
| 20260502122905 | 11 | 179 | 1.6 | 6.4 | 0.00 | 0.00 | 0.00 | 83 | 1011.5 |
| 20260502122804 | 11 | 187 | 1.6 | 6.4 | 0.00 | 0.00 | 0.00 | 83 | 1011.5 |
| 20260502122705 | 11 | 200 | 1.6 | 4.8 | 0.00 | 0.00 | 0.00 | 83 | 1011.4 |
| 20260502122604 | 11 | 213 | 1.6 | 4.8 | 0.00 | 0.00 | 0.00 | 83 | 1011.4 |
| 20260502122505 | 10 | 222 | 1.6 | 4.8 | 0.00 | 0.00 | 0.00 | 83 | 1011.4 |
| 20260502122405 | 10 | 237 | 1.6 | 4.8 | 0.00 | 0.00 | 0.00 | 83 | 1011.4 |
| 20260502122306 | 10 | 250 | 1.6 | 4.8 | 0.00 | 0.00 | 0.00 | 83 | 1011.4 |
| 20260502122205 | 10 | 262 | 1.6 | 3.2 | 0.00 | 0.00 | 0.00 | 83 | 1011.5 |
| 20260502122104 | 10 | 262 | 1.6 | 3.2 | 0.00 | 0.00 | 0.00 | 83 | 1011.5 |
| 20260502122004 | 10 | 262 | 1.6 | 3.2 | 0.00 | 0.00 | 0.00 | 83 | 1011.5 |
| 20260502121905 | 10 | 262 | 1.6 | 3.2 | 0.00 | 0.00 | 0.00 | 83 | 1011.5 |
| 20260502121804 | 10 | 262 | 1.6 | 3.2 | 0.00 | 0.00 | 0.00 | 83 | 1011.5 |
| 20260502121705 | 10 | 262 | 1.6 | 3.2 | 0.00 | 0.00 | 0.00 | 83 | 1011.5 |
| 20260502121616 | 10 | 261 | 0.0 | 3.2 | 0.00 | 0.00 | 0.00 | 83 | 1011.8 |
| 20260502121605 | 10 | 262 | 1.6 | 3.2 | 0.00 | 0.00 | 0.00 | 83 | 1011.6 |
| 20260502121504 | 10 | 262 | 1.6 | 4.8 | 0.00 | 0.00 | 0.00 | 83 | 1011.6 |
| 20260502121405 | 10 | 262 | 1.6 | 4.8 | 0.00 | 0.00 | 0.00 | 83 | 1011.6 |
| 20260502121304 | 10 | 265 | 1.6 | 6.4 | 0.00 | 0.00 | 0.00 | 83 | 1011.6 |
| 20260502121204 | 10 | 269 | 1.6 | 6.4 | 0.00 | 0.00 | 0.00 | 83 | 1011.6 |
| 20260502121105 | 10 | 270 | 3.2 | 6.4 | 0.00 | 0.00 | 0.00 | 83 | 1011.6 |
| 20260502120108 | 10 | 282 | 1.6 | 6.4 | 0.00 | 0.00 | 0.00 | 83 | 1012.0 |
| 20260502115905 | 10 | 280 | 3.2 | 6.4 | 0.00 | 0.00 | 0.00 | 83 | 1011.6 |
| 20260502115805 | 10 | 278 | 3.2 | 6.4 | 0.00 | 0.00 | 0.00 | 83 | 1011.6 |
| 20260502115704 | 10 | 276 | 3.2 | 9.7 | 0.00 | 0.00 | 0.00 | 83 | 1011.6 |
| 20260502115604 | 10 | 275 | 4.8 | 9.7 | 0.00 | 0.00 | 0.00 | 83 | 1011.6 |
| 20260502115505 | 10 | 274 | 4.8 | 9.7 | 0.00 | 0.00 | 0.00 | 83 | 1011.6 |
| 20260502115404 | 10 | 272 | 4.8 | 9.7 | 0.00 | 0.00 | 0.00 | 83 | 1011.7 |
| 20260502115306 | 10 | 270 | 4.8 | 9.7 | 0.00 | 0.00 | 0.00 | 83 | 1011.7 |
| 20260502115205 | 10 | 270 | 4.8 | 9.7 | 0.00 | 0.00 | 0.00 | 83 | 1011.7 |
| 20260502115104 | 10 | 268 | 4.8 | 9.7 | 0.00 | 0.00 | 0.00 | 83 | 1011.7 |
| 20260502115005 | 10 | 266 | 4.8 | 9.7 | 0.00 | 0.00 | 0.00 | 83 | 1011.8 |
| 20260502114905 | 10 | 265 | 4.8 | 11.3 | 0.00 | 0.00 | 0.00 | 83 | 1011.8 |
| 20260502114804 | 10 | 261 | 4.8 | 12.9 | 0.00 | 0.00 | 0.00 | 83 | 1011.8 |
| 20260502114705 | 10 | 256 | 4.8 | 12.9 | 0.00 | 0.00 | 0.00 | 83 | 1011.8 |
| 20260502114617 | 10 | 277 | 3.2 | 12.9 | 0.00 | 0.00 | 0.00 | 83 | 1012.1 |
| 20260502114604 | 10 | 251 | 4.8 | 12.9 | 0.00 | 0.00 | 0.00 | 83 | 1011.9 |
| 20260502114505 | 10 | 244 | 4.8 | 14.5 | 0.00 | 0.00 | 0.00 | 83 | 1011.9 |
| 20260502114405 | 10 | 240 | 4.8 | 14.5 | 0.00 | 0.00 | 0.00 | 83 | 1011.8 |
| 20260502113805 | 10 | 224 | 8.0 | 14.5 | 0.00 | 0.00 | 0.00 | 83 | 1011.9 |
| 20260502113704 | 10 | 223 | 6.4 | 14.5 | 0.00 | 0.00 | 0.00 | 83 | 1011.9 |
| 20260502113604 | 10 | 223 | 6.4 | 14.5 | 0.00 | 0.00 | 0.00 | 83 | 1012.0 |
| 20260502113505 | 10 | 223 | 8.0 | 14.5 | 0.00 | 0.00 | 0.00 | 83 | 1011.9 |
| 20260502113404 | 10 | 222 | 8.0 | 14.5 | 0.00 | 0.00 | 0.00 | 83 | 1011.9 |
| 20260502113304 | 10 | 217 | 8.0 | 17.7 | 0.00 | 0.00 | 0.00 | 83 | 1012.0 |
| 20260502113205 | 10 | 214 | 8.0 | 17.7 | 0.00 | 0.00 | 0.00 | 83 | 1012.0 |
| 20260502113106 | 10 | 217 | 6.4 | 17.7 | 0.00 | 0.00 | 0.00 | 83 | 1012.2 |
| 20260502113104 | 10 | 210 | 8.0 | 17.7 | 0.00 | 0.00 | 0.00 | 83 | 1012.0 |
| 20260502113005 | 10 | 208 | 8.0 | 17.7 | 0.00 | 0.00 | 0.00 | 83 | 1012.0 |
| 20260502112904 | 10 | 207 | 8.0 | 17.7 | 0.00 | 0.00 | 0.00 | 83 | 1012.0 |
| 20260502112804 | 10 | 204 | 8.0 | 17.7 | 0.00 | 0.00 | 0.00 | 83 | 1012.0 |
| 20260502112705 | 10 | 202 | 8.0 | 17.7 | 0.00 | 0.00 | 0.00 | 83 | 1012.0 |
| 20260502112604 | 10 | 198 | 8.0 | 17.7 | 0.00 | 0.00 | 0.00 | 83 | 1012.0 |
| 20260502112505 | 10 | 195 | 8.0 | 17.7 | 0.00 | 0.00 | 0.00 | 83 | 1012.0 |
| 20260502112404 | 10 | 194 | 8.0 | 17.7 | 0.00 | 0.00 | 0.00 | 84 | 1012.0 |
| 20260502112306 | 10 | 194 | 6.4 | 14.5 | 0.00 | 0.00 | 0.00 | 84 | 1012.0 |
| 20260502112204 | 10 | 194 | 6.4 | 14.5 | 0.00 | 0.00 | 0.00 | 84 | 1012.0 |
| 20260502112105 | 10 | 194 | 6.4 | 14.5 | 0.00 | 0.00 | 0.00 | 84 | 1012.0 |
| 20260502112004 | 10 | 192 | 6.4 | 14.5 | 0.00 | 0.00 | 0.00 | 84 | 1011.9 |
| 20260502111905 | 10 | 194 | 6.4 | 14.5 | 0.00 | 0.00 | 0.00 | 83 | 1011.8 |
| 20260502111805 | 10 | 192 | 4.8 | 14.5 | 0.00 | 0.00 | 0.00 | 84 | 1011.8 |
| 20260502111704 | 10 | 187 | 4.8 | 12.9 | 0.00 | 0.00 | 0.00 | 83 | 1011.7 |
| 20260502111617 | 10 | 183 | 6.4 | 12.9 | 0.00 | 0.00 | 0.00 | 83 | 1012.0 |
| 20260502111605 | 10 | 187 | 4.8 | 12.9 | 0.00 | 0.00 | 0.00 | 83 | 1011.7 |
| 20260502111504 | 10 | 186 | 4.8 | 9.7 | 0.00 | 0.00 | 0.00 | 83 | 1011.7 |
| 20260502111404 | 10 | 184 | 4.8 | 9.7 | 0.00 | 0.00 | 0.00 | 83 | 1011.7 |
| 20260502111305 | 10 | 184 | 4.8 | 14.5 | 0.00 | 0.00 | 0.00 | 83 | 1011.7 |
| 20260502111204 | 10 | 182 | 4.8 | 14.5 | 0.00 | 0.00 | 0.00 | 83 | 1011.6 |
| 20260502111104 | 10 | 179 | 6.4 | 14.5 | 0.00 | 0.00 | 0.00 | 83 | 1011.6 |
| 20260502111005 | 10 | 178 | 6.4 | 16.1 | 0.00 | 0.00 | 0.00 | 83 | 1011.5 |
| 20260502110904 | 10 | 176 | 6.4 | 16.1 | 0.00 | 0.00 | 0.00 | 83 | 1011.4 |
| 20260502110305 | 10 | 175 | 8.0 | 16.1 | 0.00 | 0.00 | 0.00 | 83 | 1011.7 |
| 20260502110204 | 10 | 176 | 8.0 | 16.1 | 0.00 | 0.00 | 0.00 | 83 | 1011.6 |
| 20260502110104 | 9 | 202 | 8.0 | 16.1 | 0.00 | 0.00 | 0.00 | 83 | 1011.9 |
| 20260502110004 | 10 | 175 | 8.0 | 16.1 | 0.00 | 0.00 | 0.00 | 83 | 1011.5 |
| 20260502105904 | 10 | 177 | 8.0 | 16.1 | 0.00 | 0.00 | 0.00 | 83 | 1011.4 |
| 20260502105805 | 10 | 177 | 8.0 | 16.1 | 0.00 | 0.00 | 0.00 | 83 | 1011.4 |
| 20260502105704 | 10 | 179 | 8.0 | 17.7 | 0.00 | 0.00 | 0.00 | 83 | 1011.4 |
| 20260502105605 | 10 | 181 | 8.0 | 17.7 | 0.00 | 0.00 | 0.00 | 83 | 1011.4 |
| 20260502105504 | 10 | 183 | 8.0 | 17.7 | 0.00 | 0.00 | 0.00 | 83 | 1011.5 |
| 20260502105404 | 10 | 183 | 8.0 | 17.7 | 0.00 | 0.00 | 0.00 | 83 | 1011.5 |
| 20260502105306 | 10 | 184 | 8.0 | 17.7 | 0.00 | 0.00 | 0.00 | 83 | 1011.5 |
| 20260502105204 | 10 | 183 | 8.0 | 19.3 | 0.00 | 0.00 | 0.00 | 83 | 1011.5 |
| 20260502105104 | 10 | 183 | 8.0 | 19.3 | 0.00 | 0.00 | 0.00 | 83 | 1011.5 |
| 20260502105004 | 10 | 182 | 8.0 | 19.3 | 0.00 | 0.00 | 0.00 | 83 | 1011.5 |
| 20260502104904 | 10 | 181 | 8.0 | 19.3 | 0.00 | 0.00 | 0.00 | 83 | 1011.5 |
| 20260502104805 | 10 | 179 | 8.0 | 19.3 | 0.00 | 0.00 | 0.00 | 83 | 1011.4 |
| 20260502104704 | 10 | 178 | 9.7 | 19.3 | 0.00 | 0.00 | 0.00 | 83 | 1011.4 |
| 20260502104614 | 9 | 184 | 8.0 | 19.3 | 0.00 | 0.00 | 0.00 | 83 | 1011.6 |
| 20260502104605 | 10 | 176 | 9.7 | 19.3 | 0.00 | 0.00 | 0.00 | 83 | 1011.4 |
| 20260502104504 | 10 | 174 | 9.7 | 19.3 | 0.00 | 0.00 | 0.00 | 83 | 1011.4 |
| 20260502104404 | 10 | 173 | 9.7 | 19.3 | 0.00 | 0.00 | 0.00 | 83 | 1011.3 |
| 20260502104305 | 10 | 174 | 9.7 | 19.3 | 0.00 | 0.00 | 0.00 | 83 | 1011.3 |
| 20260502103705 | 10 | 174 | 9.7 | 19.3 | 0.00 | 0.00 | 0.00 | 83 | 1011.2 |
| 20260502103604 | 10 | 174 | 8.0 | 19.3 | 0.00 | 0.00 | 0.00 | 83 | 1011.2 |
| 20260502103505 | 10 | 175 | 8.0 | 19.3 | 0.00 | 0.00 | 0.00 | 83 | 1011.2 |
| 20260502103404 | 10 | 175 | 9.7 | 19.3 | 0.00 | 0.00 | 0.00 | 83 | 1011.3 |
| 20260502103304 | 10 | 172 | 9.7 | 19.3 | 0.00 | 0.00 | 0.00 | 83 | 1011.3 |
| 20260502103204 | 10 | 171 | 9.7 | 19.3 | 0.00 | 0.00 | 0.00 | 83 | 1011.3 |
| 20260502103104 | 10 | 168 | 9.7 | 19.3 | 0.00 | 0.00 | 0.00 | 83 | 1011.2 |
| 20260502103004 | 10 | 167 | 8.0 | 19.3 | 0.00 | 0.00 | 0.00 | 83 | 1011.2 |
| 20260502102904 | 10 | 165 | 9.7 | 17.7 | 0.00 | 0.00 | 0.00 | 83 | 1011.3 |
| 20260502102804 | 10 | 165 | 9.7 | 17.7 | 0.00 | 0.00 | 0.00 | 83 | 1011.3 |
| 20260502102705 | 10 | 164 | 9.7 | 17.7 | 0.00 | 0.00 | 0.00 | 83 | 1011.2 |
| 20260502102605 | 10 | 163 | 9.7 | 17.7 | 0.00 | 0.00 | 0.00 | 83 | 1011.2 |
| 20260502102505 | 10 | 162 | 9.7 | 17.7 | 0.00 | 0.00 | 0.00 | 83 | 1011.3 |
| 20260502102404 | 10 | 162 | 9.7 | 17.7 | 0.00 | 0.00 | 0.00 | 83 | 1011.2 |
| 20260502102306 | 10 | 162 | 9.7 | 17.7 | 0.00 | 0.00 | 0.00 | 83 | 1011.2 |
| 20260502102205 | 10 | 163 | 11.3 | 17.7 | 0.00 | 0.00 | 0.00 | 83 | 1011.2 |
| 20260502102104 | 10 | 164 | 11.3 | 17.7 | 0.00 | 0.00 | 0.00 | 83 | 1011.2 |
| 20260502101804 | 10 | 164 | 11.3 | 17.7 | 0.00 | 0.00 | 0.00 | 82 | 1011.2 |
| 20260502101605 | 10 | 163 | 11.3 | 17.7 | 0.00 | 0.00 | 0.00 | 82 | 1011.2 |
| 20260502101504 | 10 | 163 | 11.3 | 17.7 | 0.00 | 0.00 | 0.00 | 83 | 1011.2 |
| 20260502101404 | 10 | 163 | 11.3 | 17.7 | 0.00 | 0.00 | 0.00 | 83 | 1011.2 |
| 20260502101305 | 10 | 164 | 11.3 | 17.7 | 0.00 | 0.00 | 0.00 | 83 | 1011.1 |
| 20260502101204 | 10 | 163 | 11.3 | 17.7 | 0.00 | 0.00 | 0.00 | 83 | 1011.1 |
| 20260502101104 | 10 | 163 | 9.7 | 17.7 | 0.00 | 0.00 | 0.00 | 83 | 1011.0 |
| 20260502101005 | 10 | 163 | 11.3 | 17.7 | 0.00 | 0.00 | 0.00 | 83 | 1011.0 |
| 20260502100904 | 10 | 163 | 9.7 | 17.7 | 0.00 | 0.00 | 0.00 | 83 | 1011.0 |
| 20260502100805 | 10 | 163 | 9.7 | 17.7 | 0.00 | 0.00 | 0.00 | 83 | 1011.0 |
| 20260502100705 | 10 | 164 | 9.7 | 17.7 | 0.00 | 0.00 | 0.00 | 82 | 1011.0 |
| 20260502100605 | 10 | 164 | 9.7 | 17.7 | 0.00 | 0.00 | 0.00 | 82 | 1011.0 |
| 20260502100504 | 10 | 164 | 8.0 | 16.1 | 0.00 | 0.00 | 0.00 | 82 | 1011.0 |
| 20260502100405 | 10 | 164 | 9.7 | 16.1 | 0.00 | 0.00 | 0.00 | 82 | 1011.0 |
| 20260502100304 | 10 | 163 | 9.7 | 16.1 | 0.00 | 0.00 | 0.00 | 82 | 1011.0 |
| 20260502100204 | 10 | 163 | 9.7 | 16.1 | 0.00 | 0.00 | 0.00 | 82 | 1011.1 |
| 20260502100134 | 9 | 169 | 8.0 | 16.1 | 0.00 | 0.00 | 0.00 | 82 | 1011.3 |
| 20260502100105 | 10 | 162 | 9.7 | 16.1 | 0.00 | 0.00 | 0.00 | 82 | 1011.1 |
| 20260502091504 | 10 | 172 | 8.0 | 17.7 | 0.00 | 0.00 | 0.00 | 81 | 1011.1 |
| 20260502091404 | 10 | 171 | 8.0 | 17.7 | 0.00 | 0.00 | 0.00 | 81 | 1011.2 |
| 20260502091305 | 10 | 169 | 8.0 | 17.7 | 0.00 | 0.00 | 0.00 | 81 | 1011.2 |
| 20260502091204 | 10 | 168 | 8.0 | 17.7 | 0.00 | 0.00 | 0.00 | 81 | 1011.2 |
| 20260502091105 | 10 | 167 | 8.0 | 17.7 | 0.00 | 0.00 | 0.00 | 81 | 1011.2 |
| 20260502091004 | 10 | 166 | 9.7 | 17.7 | 0.00 | 0.00 | 0.00 | 81 | 1011.2 |
| 20260502090405 | 10 | 174 | 11.3 | 20.9 | 0.00 | 0.00 | 0.00 | 81 | 1011.1 |
| 20260502090304 | 9 | 175 | 11.3 | 20.9 | 0.00 | 0.00 | 0.00 | 81 | 1011.2 |
| 20260502090204 | 9 | 176 | 11.3 | 20.9 | 0.00 | 0.00 | 0.00 | 81 | 1011.1 |
| 20260502090105 | 9 | 177 | 11.3 | 20.9 | 0.00 | 0.00 | 0.00 | 81 | 1011.0 |
| 20260502080105 | 9 | 192 | 4.8 | 16.1 | 0.00 | 0.00 | 0.00 | 80 | 1011.2 |
| 20260502071505 | 9 | 176 | 8.0 | 17.7 | 0.00 | 0.00 | 0.00 | 79 | 1011.0 |
| 20260502071404 | 9 | 176 | 8.0 | 17.7 | 0.00 | 0.00 | 0.00 | 79 | 1011.1 |
| 20260502071304 | 9 | 176 | 8.0 | 17.7 | 0.00 | 0.00 | 0.00 | 79 | 1011.1 |
| 20260502071205 | 9 | 177 | 8.0 | 17.7 | 0.00 | 0.00 | 0.00 | 79 | 1011.1 |
| 20260502071104 | 9 | 178 | 8.0 | 17.7 | 0.00 | 0.00 | 0.00 | 79 | 1011.1 |
| 20260502071004 | 9 | 175 | 8.0 | 17.7 | 0.00 | 0.00 | 0.00 | 79 | 1011.1 |
| 20260502070904 | 9 | 174 | 8.0 | 17.7 | 0.00 | 0.00 | 0.00 | 79 | 1011.1 |
| 20260502070804 | 9 | 173 | 8.0 | 17.7 | 0.00 | 0.00 | 0.00 | 79 | 1011.1 |
| 20260502070704 | 9 | 172 | 8.0 | 19.3 | 0.00 | 0.00 | 0.00 | 79 | 1011.1 |
| 20260502070605 | 9 | 173 | 8.0 | 19.3 | 0.00 | 0.00 | 0.00 | 79 | 1011.2 |
| 20260502070504 | 9 | 173 | 8.0 | 19.3 | 0.00 | 0.00 | 0.00 | 79 | 1011.2 |
| 20260502070405 | 9 | 174 | 6.4 | 19.3 | 0.00 | 0.00 | 0.00 | 79 | 1011.2 |
| 20260502070305 | 9 | 172 | 6.4 | 19.3 | 0.00 | 0.00 | 0.00 | 79 | 1011.2 |
| 20260502070205 | 9 | 173 | 8.0 | 19.3 | 0.00 | 0.00 | 0.00 | 79 | 1011.1 |
| 20260502070116 | 9 | 140 | 6.4 | 19.3 | 0.00 | 0.00 | 0.00 | 79 | 1011.3 |
| 20260502070104 | 9 | 176 | 8.0 | 19.3 | 0.00 | 0.00 | 0.00 | 79 | 1011.2 |
| 20260502070005 | 9 | 178 | 8.0 | 19.3 | 0.00 | 0.00 | 0.00 | 79 | 1011.1 |
| 20260502065905 | 9 | 179 | 8.0 | 19.3 | 0.00 | 0.00 | 0.00 | 79 | 1011.1 |
| 20260502065804 | 9 | 182 | 8.0 | 19.3 | 0.00 | 0.00 | 0.00 | 79 | 1011.3 |
| 20260502065704 | 9 | 183 | 8.0 | 17.7 | 0.00 | 0.00 | 0.00 | 79 | 1011.3 |
| 20260502065105 | 9 | 181 | 9.7 | 19.3 | 0.00 | 0.00 | 0.00 | 79 | 1011.4 |
| 20260502065004 | 9 | 181 | 9.7 | 20.9 | 0.00 | 0.00 | 0.00 | 79 | 1011.4 |
| 20260502064905 | 9 | 179 | 9.7 | 20.9 | 0.00 | 0.00 | 0.00 | 79 | 1011.4 |
| 20260502064804 | 9 | 178 | 9.7 | 20.9 | 0.00 | 0.00 | 0.00 | 79 | 1011.4 |
| 20260502064705 | 9 | 177 | 9.7 | 20.9 | 0.00 | 0.00 | 0.00 | 79 | 1011.4 |
| 20260502064617 | 9 | 177 | 11.3 | 20.9 | 0.00 | 0.00 | 0.00 | 79 | 1011.7 |
| 20260502064104 | 10 | 176 | 8.0 | 20.9 | 0.00 | 0.00 | 0.00 | 79 | 1011.4 |
| 20260502064004 | 10 | 178 | 8.0 | 17.7 | 0.00 | 0.00 | 0.00 | 79 | 1011.4 |
| 20260502063905 | 9 | 178 | 8.0 | 17.7 | 0.00 | 0.00 | 0.00 | 78 | 1011.3 |
| 20260502063804 | 9 | 179 | 8.0 | 17.7 | 0.00 | 0.00 | 0.00 | 78 | 1011.4 |
| 20260502063704 | 9 | 179 | 8.0 | 17.7 | 0.00 | 0.00 | 0.00 | 79 | 1011.4 |
| 20260502063604 | 10 | 181 | 8.0 | 17.7 | 0.00 | 0.00 | 0.00 | 78 | 1011.4 |
| 20260502063504 | 10 | 178 | 8.0 | 20.9 | 0.00 | 0.00 | 0.00 | 78 | 1011.5 |
| 20260502063404 | 9 | 178 | 8.0 | 20.9 | 0.00 | 0.00 | 0.00 | 78 | 1011.5 |
| 20260502063304 | 10 | 177 | 8.0 | 20.9 | 0.00 | 0.00 | 0.00 | 79 | 1011.5 |
| 20260502063204 | 10 | 174 | 8.0 | 20.9 | 0.00 | 0.00 | 0.00 | 78 | 1011.4 |
| 20260502063115 | 9 | 171 | 8.0 | 20.9 | 0.00 | 0.00 | 0.00 | 79 | 1011.7 |
| 20260502063104 | 10 | 174 | 8.0 | 20.9 | 0.00 | 0.00 | 0.00 | 79 | 1011.4 |
| 20260502063004 | 10 | 174 | 8.0 | 20.9 | 0.00 | 0.00 | 0.00 | 78 | 1011.5 |
| 20260502062905 | 10 | 174 | 8.0 | 20.9 | 0.00 | 0.00 | 0.00 | 79 | 1011.5 |
| 20260502062804 | 10 | 174 | 8.0 | 20.9 | 0.00 | 0.00 | 0.00 | 79 | 1011.4 |
| 20260502062704 | 10 | 173 | 8.0 | 22.5 | 0.00 | 0.00 | 0.00 | 79 | 1011.5 |
| 20260502062605 | 10 | 173 | 8.0 | 22.5 | 0.00 | 0.00 | 0.00 | 79 | 1011.4 |
| 20260502062505 | 10 | 173 | 8.0 | 22.5 | 0.00 | 0.00 | 0.00 | 78 | 1011.5 |
| 20260502062404 | 10 | 174 | 9.7 | 22.5 | 0.00 | 0.00 | 0.00 | 78 | 1011.5 |
| 20260502062306 | 10 | 173 | 9.7 | 22.5 | 0.00 | 0.00 | 0.00 | 78 | 1011.5 |
| 20260502062205 | 10 | 173 | 9.7 | 22.5 | 0.00 | 0.00 | 0.00 | 78 | 1011.5 |
| 20260502061615 | 9 | 167 | 8.0 | 19.3 | 0.00 | 0.00 | 0.00 | 78 | 1011.7 |
| 20260502061604 | 10 | 167 | 9.7 | 19.3 | 0.00 | 0.00 | 0.00 | 78 | 1011.4 |
| 20260502061505 | 10 | 169 | 9.7 | 19.3 | 0.00 | 0.00 | 0.00 | 78 | 1011.5 |
| 20260502061404 | 10 | 170 | 9.7 | 19.3 | 0.00 | 0.00 | 0.00 | 78 | 1011.4 |
| 20260502061304 | 10 | 171 | 9.7 | 19.3 | 0.00 | 0.00 | 0.00 | 78 | 1011.4 |
| 20260502061204 | 10 | 172 | 9.7 | 19.3 | 0.00 | 0.00 | 0.00 | 78 | 1011.4 |
| 20260502060604 | 10 | 175 | 9.7 | 17.7 | 0.00 | 0.00 | 0.00 | 78 | 1011.5 |
| 20260502060504 | 10 | 175 | 9.7 | 17.7 | 0.00 | 0.00 | 0.00 | 78 | 1011.5 |
| 20260502060404 | 10 | 175 | 9.7 | 17.7 | 0.00 | 0.00 | 0.00 | 78 | 1011.5 |
| 20260502060304 | 9 | 174 | 8.0 | 17.7 | 0.00 | 0.00 | 0.00 | 78 | 1011.5 |
| 20260502060204 | 9 | 174 | 8.0 | 17.7 | 0.00 | 0.00 | 0.00 | 78 | 1011.5 |
| 20260502060115 | 9 | 162 | 9.7 | 19.3 | 0.00 | 0.00 | 0.00 | 78 | 1011.7 |
| 20260502060104 | 10 | 174 | 9.7 | 20.9 | 0.00 | 0.00 | 0.00 | 78 | 1011.4 |
| 20260502060004 | 10 | 175 | 8.0 | 20.9 | 0.00 | 0.00 | 0.00 | 78 | 1011.3 |
| 20260502055904 | 9 | 176 | 8.0 | 20.9 | 0.00 | 0.00 | 0.00 | 78 | 1011.3 |
| 20260502055805 | 9 | 174 | 8.0 | 20.9 | 0.00 | 0.00 | 0.00 | 78 | 1011.4 |
| 20260502055704 | 10 | 174 | 8.0 | 20.9 | 0.00 | 0.00 | 0.00 | 78 | 1011.4 |
| 20260502055105 | 9 | 175 | 9.7 | 20.9 | 0.00 | 0.00 | 0.00 | 77 | 1011.5 |
| 20260502055004 | 9 | 174 | 9.7 | 20.9 | 0.00 | 0.00 | 0.00 | 77 | 1011.5 |
| 20260502054904 | 9 | 173 | 9.7 | 20.9 | 0.00 | 0.00 | 0.00 | 77 | 1011.5 |
| 20260502054805 | 9 | 174 | 9.7 | 20.9 | 0.00 | 0.00 | 0.00 | 77 | 1011.5 |
| 20260502054704 | 9 | 175 | 9.7 | 20.9 | 0.00 | 0.00 | 0.00 | 77 | 1011.5 |
| 20260502054604 | 9 | 175 | 9.7 | 20.9 | 0.00 | 0.00 | 0.00 | 77 | 1011.5 |
| 20260502054504 | 9 | 172 | 9.7 | 19.3 | 0.00 | 0.00 | 0.00 | 77 | 1011.5 |
| 20260502054404 | 9 | 173 | 9.7 | 19.3 | 0.00 | 0.00 | 0.00 | 77 | 1011.5 |
| 20260502054305 | 9 | 173 | 8.0 | 19.3 | 0.00 | 0.00 | 0.00 | 77 | 1011.5 |
| 20260502054204 | 9 | 173 | 8.0 | 19.3 | 0.00 | 0.00 | 0.00 | 77 | 1011.5 |
| 20260502053504 | 9 | 172 | 8.0 | 16.1 | 0.00 | 0.00 | 0.00 | 77 | 1011.6 |
| 20260502053405 | 9 | 173 | 9.7 | 17.7 | 0.00 | 0.00 | 0.00 | 77 | 1011.6 |
| 20260502053304 | 9 | 172 | 9.7 | 17.7 | 0.00 | 0.00 | 0.00 | 77 | 1011.6 |
| 20260502053204 | 10 | 172 | 9.7 | 17.7 | 0.00 | 0.00 | 0.00 | 77 | 1011.6 |
| 20260502053116 | 9 | 178 | 6.4 | 17.7 | 0.00 | 0.00 | 0.00 | 77 | 1011.8 |
| 20260502053105 | 10 | 173 | 9.7 | 17.7 | 0.00 | 0.00 | 0.00 | 77 | 1011.6 |
| 20260502052005 | 10 | 174 | 9.7 | 19.3 | 0.00 | 0.00 | 0.00 | 76 | 1011.5 |
| 20260502051904 | 10 | 174 | 9.7 | 19.3 | 0.00 | 0.00 | 0.00 | 76 | 1011.5 |
| 20260502051804 | 10 | 175 | 9.7 | 19.3 | 0.00 | 0.00 | 0.00 | 76 | 1011.5 |
| 20260502051704 | 10 | 177 | 9.7 | 20.9 | 0.00 | 0.00 | 0.00 | 76 | 1011.5 |
| 20260502051609 | 9 | 179 | 8.0 | 20.9 | 0.00 | 0.00 | 0.00 | 76 | 1011.7 |
| 20260502051604 | 10 | 177 | 9.7 | 20.9 | 0.00 | 0.00 | 0.00 | 76 | 1011.5 |